     2              OBSERVATION DATA    GPS                 RINEX VERSION / TYPE
teqc 2000Feb29 20021016 17:31:01UTC                         PGM / RUN BY / DATE
                                                            COMMENT
L2: 1 -> 1; 5 -> 5; 60 -> 9                                 COMMENT
L2: 1 -> 1; 5 -> 5; 60 -> 9                                 COMMENT
L2: 1 -> 1; 5 -> 5; 60 -> 9                                 COMMENT
L2: 1 -> 1; 5 -> 5; 60 -> 9                                 COMMENT
L2: 1 -> 1; 5 -> 5; 60 -> 9                                 COMMENT
Original Marker Name: VINC                                  COMMENT
Campaign Name: Yolo County Subsidence 2002                  COMMENT
4-Character Station Name: VINC                              COMMENT
6-Character Antenna Code: TRMCMP                            COMMENT
Vertical Measurement Point: BPA                             COMMENT
Vertical Offset to Rinex Ref. Point: 0.0000                 COMMENT
Radial Measurement Point: RRP                               COMMENT
Radial Offset to Rinex Ref. Point: 0.0000                   COMMENT
Antenna Height from Field Measurement: 2.0000 m             COMMENT
Additional Antenna Identification Info.:                    COMMENT
Model 22020.00+GP                                           COMMENT
Original XYZ: -2636254.2068 -4221604.4113 3975245.5878      COMMENT
New XYZ position is based on association with SCEC monument COMMENT
E1O4H0N6+0201. Position of that monument is believed to be  COMMENT
valid to within 1 m horizontally; vertical accuracy         COMMENT
should be no worse than 3-times this value.                 COMMENT
                                                            COMMENT
Revised Rinex header created by UCSD GPS archive for        COMMENT
GSAC on 17-Jul-2003 (2003:198) 21:16:02 GMT                 COMMENT
For assistance contact dagnew@ucsd.edu                      COMMENT
or anderson@python.ucsd.edu                                 COMMENT
                                                            COMMENT
VINCOR                                                      MARKER NAME
VINC                                                        MARKER NUMBER
-Unknown- YOLO_COUNTY                                       OBSERVER / AGENCY
3912 TRIMBLE 4000 SSI NP 7.29; SP 3.07                      REC # / TYPE / VERS
0220059298 TR GEOD L1/L2 GP                                 ANT # / TYPE
 -2636254.7699 -4221604.6324  3975244.2050                  APPROX POSITION XYZ
        2.0000        0.0000        0.0000                  ANTENNA: DELTA H/E/N
     1     1     0                                          WAVELENGTH FACT L1/2
     7    C1    L1    L2    P1    P2    S1    S2            # / TYPES OF OBSERV
     0                                                      INTERVAL
  2002     7     9    15     1   15.000000                  TIME OF FIRST OBS
  2002     7     9    15    45   45.000000                  TIME OF LAST OBS
                                                            END OF HEADER
 02  7  9 15  1 15.0000000  0  9G26G 6G10G15G17G18G29G23G30
  23699759.7194     -24348.60855
         9.5004
  20337773.0704     -31756.59257    -16044.18956                  20337779.1174
        26.2504         25.2504
  22145808.5164      98304.60657     76600.49856                  22145814.8794
        20.7504         21.5004
  22156238.1954    -110899.32956    -27538.16656                  22156245.0274
        17.0004         18.2504
  21479609.7034     -81594.50757     -9981.07356                  21479616.0204
        21.5004         24.2504
  23610085.6414    -148151.51155
        11.0004
  23756098.2194      -4694.73055
         9.2504
  20790105.2034     -26784.59757    -10900.38557                  20790111.3914
        26.2504         27.5004
  22269002.1644      23793.12256
        17.7504
 02  7  9 15  1 30.0000000  0  9G26G 6G10G15G17G18G29G23G30
  23691181.2194     -69431.11645
         9.5004
  20335976.1174     -41197.99047    -23401.12746                  20335982.0474
        26.5004         25.0004
  22152646.8204     134240.99447    104602.86346                  22152653.1484
        20.2504         21.2504
  22149174.0474    -148022.08246    -56464.97046                  22149180.7624
        17.0004         18.0004
  21474491.0234    -108492.76247    -30940.73746                  21474497.0354
        21.0004         24.2504
  23599220.3594    -205247.89545
        11.0004
  23749477.3284     -39487.10345
         9.5004
  20788653.2194     -34414.84447    -16846.03747                  20788659.3134
        27.0004         27.7504
  22277603.6334      68994.33346
        17.2504
 02  7  9 15  1 45.0000000  0  9G26G 6G10G15G17G18G29G23G30
  23682735.1094    -113815.45745
         9.5004
  20334320.2034     -49901.45547    -30183.04846                  20334326.2384
        25.7504         25.5004
  22159626.7734     170919.55447    133183.54546                  22159633.1724
        20.5004         21.5004
  22142242.6334    -184445.73146    -84847.02246                  22142249.8204
        16.7504         18.5004
  21469506.0634    -134690.70147    -51354.71646                  21469512.1214
        21.2504         24.2504
  23588485.0784    -261661.92145    -29246.62055                  23588491.6524
        10.7504         10.7504
  23742992.4384     -73565.75745
        10.0004
  20787349.1484     -41267.72347    -22185.94547                  20787355.1724
        27.2504         28.0004
  22286339.5864     114901.84846      4797.26456                  22286346.4574
        17.5004         17.7504
 02  7  9 15  2  0.0000000  0  9G26G 6G10G15G17G18G29G23G30
  23674412.6254    -157551.15345
        10.0004
  20332794.9924     -57916.75247    -36428.74446                  20332800.9694
        26.2504         25.2504
  22166738.0004     208289.95147    162303.31346                  22166745.0594
        20.2504         21.7504
  22135435.2894    -220220.23046   -112723.24846                  22135442.7704
        16.5004         18.7504
  21464644.3594    -160238.30747    -71261.94246                  21464650.5474
        21.5004         24.5004
  23577870.3134    -317443.17845    -72712.49545                  23577876.4654
        10.7504         11.0004
  23736633.9844    -106980.11245     -8622.06955                  23736642.4264
        10.0004         11.2504
  20786183.4304     -47393.17147    -26959.02847                  20786189.4184
        27.7504         28.0004
  22295200.4454     161465.32446     41080.44546                  22295207.1604
        17.5004         17.7504
 02  7  9 15  2 15.0000000  0  9G26G 6G10G15G17G18G29G23G30
  23666204.7664    -200682.52845
        10.2504
  20331392.2034     -65288.45847    -42172.93846                  20331398.2974
        26.5004         25.5004
  22173972.3674     246307.22847    191927.14546                  22173979.4734
        20.2504         21.7504
  22128742.4064    -255390.26446   -140128.45646                  22128749.7234
        17.5004         19.0004
  21459897.7664    -185180.20347    -90697.18746                  21459903.9884
        21.2504         24.2504
  23567367.0084    -372636.19045   -115719.99145                  23567374.0554
        10.2504         11.0004
  23730392.9694    -139774.57645    -34176.18245                  23730400.7424
        10.5004         11.0004
  20785147.7274     -52835.93647    -31200.14647                  20785153.7154
        27.5004         28.2504
  22304177.4924     208639.72346     77839.66946                  22304183.6214
        18.2504         17.7504
 02  7  9 15  2 30.0000000  0  9G26G 6G10G15G17G18G29G23G30
  23658104.7814    -243248.77045    -15423.67355                  23658113.7384
        10.5004         10.0004
  20330104.2584     -72056.05647    -47446.40547                  20330110.2464
        26.7504         25.7504
  22181322.1024     284931.19646    222023.72446                  22181329.3364
        19.7504         21.7504
  22122157.4304    -289995.46946   -167093.53046                  22122164.4774
        17.7504         18.5004
  21455259.4454    -209556.19847   -109691.46746                  21455266.2074
        20.5004         24.2504
  23556968.8984    -427280.28445   -158299.79245                  23556976.3674
        10.5004         11.2504
  23724263.0704    -171988.53445    -59277.93945                  23724271.2194
        10.7504         11.5004
  20784234.3984     -57635.77147    -34940.28047                  20784240.5514
        27.5004         27.7504
  22313263.1414     256384.91046    115043.67046                  22313269.1524
        18.0004         18.0004
 02  7  9 15  2 45.0000000  0  9G26G 6G10G15G17G18G29G23G30
  23650106.5314    -285280.79345    -48175.87045                  23650115.0204
        10.0004         10.0004
  20328925.2814     -78250.78147    -52273.47446                  20328931.1884
        27.0004         25.5004
  22188781.3284     324130.26046    252568.42946                  22188788.4694
        19.5004         21.5004
  22115674.0004    -324067.10746   -193642.85546                  22115680.4804
        18.2504         19.2504
  21450722.4694    -233397.54947   -128269.13946                  21450728.9964
        21.0004         24.0004
  23546668.8674    -481406.60645   -200476.10245                  23546675.6174
        10.0004         11.5004
  23718237.3134    -203652.99045    -83951.50845                  23718244.6994
        11.0004         11.2504
  20783437.4384     -61823.99447    -38203.83547                  20783443.4734
        27.5004         27.7504
  22322451.3524     304669.19846    152667.74946                  22322457.7274
        17.5004         18.2504
 02  7  9 15  3  0.0000000  0  9G26G 6G10G15G17G18G29G23G30
  23642205.1024    -326806.20745    -80533.27945                  23642212.5824
        10.5004         10.2504
  20327850.3364     -83900.42047    -56675.79246                  20327856.3134
        26.7504         25.0004
  22196344.9534     363876.13946    283539.22046                  22196352.1054
        19.7504         21.2504
  22109286.4384    -357633.23946   -219798.27146                  22109293.3554
        18.5004         18.7504
  21446281.7974    -256732.28347   -146452.04946                  21446288.3364
        20.5004         23.7504
  23536462.2034    -535042.90045   -242270.57545                  23536469.9184
        10.2504         11.2504
  23712311.8284    -234795.50745   -108218.39446                  23712317.9924
        11.2504         12.0004
  20782751.1644     -65428.67147    -41012.67247                  20782757.1994
        27.7504         27.7504
  22331736.9384     353464.34346    190689.88946                  22331743.1724
        17.2504         18.2504
 02  7  9 15  3 15.0000000  0  9G26G 6G10G15G17G18G29G23G30
  23634393.5634    -367851.67045   -112516.72045                  23634401.2664
         9.7504          9.5004
  20326873.8204     -89031.92147    -60674.37346                  20326879.6684
        26.5004         25.0004
  22204007.3594     404141.36447    314914.70546                  22204014.0634
        21.0004         21.5004
  22102989.9844    -390720.88146   -245580.83746                  22102996.8554
        18.0004         19.0004
  21441932.8134    -279587.67447   -164261.44446                  21441939.1884
        20.5004         24.0004
  23526343.5554    -588215.91745   -283704.07545                  23526351.0004
        10.0004         11.2504
  23706479.4924    -265442.78545   -132099.38345                  23706486.4574
        11.0004         11.2504
  20782171.1644     -68476.90747    -43387.92247                  20782177.2114
        27.5004         27.7504
  22341114.2424     402742.79646    229088.64446                  22341120.6294
        17.0004         18.5004
 02  7  9 15  3 30.0000000  0  9G26G 6G10G15G17G18G29G23G30
  23626670.7504    -408433.08845   -144138.56545                  23626677.8914
         9.0004          9.2504
  20325993.1024     -93661.47147    -64281.82646                  20325998.9384
        26.2504         24.7504
  22211765.1414     444909.19947    346681.84046                  22211772.0124
        21.5004         21.7504
  22096781.6174    -423346.35346   -271003.27246                  22096788.5124
        18.0004         18.7504
  21437671.6954    -301979.95447   -181709.96946                  21437678.1294
        21.0004         24.0004
  23516310.3054    -640941.76545   -324789.10845                  23516317.8914
        10.5004         11.5004
  23700738.7734    -295610.96845   -155607.04545                  23700745.2664
        10.7504         11.2504
  20781694.1414     -70985.06147    -45342.33147                  20781700.1294
        27.5004         27.5004
  22350580.4844     452487.84946    267850.96746                  22350586.9534
        17.5004         18.7504
 02  7  9 15  3 45.0000000  0  9G26G 6G10G15G17G18G29G23G30
  23619033.2504    -448569.45945   -175413.61945                  23619040.0234
         8.7504          8.7504
  20325203.7114     -97808.38747    -67513.19346                  20325209.6524
        26.5004         25.2504
  22219614.8054     486159.95147    378825.27046                  22219621.9574
        20.7504         21.7504
  22090657.2974    -455529.06546   -296080.70746                  22090664.2274
        18.2504         18.5004
  21433495.1094    -323928.62447   -198812.83346                  21433501.2154
        21.5004         24.0004
  23506358.6884    -693239.56145   -365540.61845                  23506366.2154
        11.5004         11.7504
  23695085.6804    -325319.20245   -178756.30145                  23695092.3364
        11.2504         11.2504
  20781316.0004     -72972.63347    -46891.08847                  20781322.0234
        27.0004         27.7504
  22360131.9534     502679.70346    306961.45846                  22360138.3404
        18.2504         18.7504
 02  7  9 15  4  0.0000000  0  9G26G 6G10G15G17G18G29G23G30
  23611477.4064    -488275.70445   -206353.49045                  23611484.9574
         8.2504          9.2504
  20324503.5474    -101487.83047    -70380.29046                  20324509.4884
        26.2504         25.0004
  22227553.7734     527877.76547    411332.64446                  22227560.7974
        21.0004         21.2504
  22084614.4844    -487284.42346   -320825.13146                  22084620.9654
        17.7504         19.0004
  21429399.9144    -345449.08547   -215582.02246                  21429405.9494
        21.7504         24.2504
  23496484.8284    -745124.33646   -405970.27946                  23496492.0984
        12.7504         12.5004
  23689517.0234    -354582.40645   -201558.74545                  23689523.1294
        11.7504         11.7504
  20781033.7734     -74455.06947    -48046.23947                  20781039.8204
        27.0004         27.2504
  22369765.4144     553302.59046    346407.80946                  22369771.4264
        18.7504         18.5004
 02  7  9 15  4 15.0000000  0  9G26G 6G10G15G17G18G29G23G30
  23604000.1884    -527568.87945   -236971.50345                  23604008.6884
         8.5004          9.0004
  20323889.0704    -104717.18147    -72896.67546                  20323895.1054
        26.0004         24.7504
  22235577.8754     570044.83547    444190.08346                  22235584.9804
        21.2504         21.2504
  22078649.6564    -518629.79946   -345250.09446                  22078656.5864
        18.2504         19.0004
  21425382.8364    -366558.77547   -232031.13146                  21425388.9064
        22.0004         24.2504
  23486687.1954    -796613.38046   -446091.58746                  23486693.1724
        13.0004         12.0004
  23684029.7194    -383417.70945   -224027.79846                  23684035.9654
        11.5004         12.2504
  20780844.5944     -75449.93048    -48821.46447                  20780850.6764
        28.0004         27.7504
  22379476.9844     604338.67746    386176.15546                  22379483.3834
        19.5004         18.5004
 02  7  9 15  4 30.0000000  0  9G26G 6G10G15G17G18G29G23G30
  23596600.5004    -566457.22745   -267274.09045                  23596607.4304
         8.7504          9.5004
  20323358.5164    -107504.92247    -75068.94746                  20323364.5514
        26.2504         25.0004
  22243685.8444     612652.30047    477390.69746                  22243692.4774
        21.2504         21.2504
  22072761.3134    -549573.80146   -369362.28646                  22072767.8524
        18.5004         18.7504
  21421442.2584    -387266.31347   -248166.87146                  21421448.5274
        21.5004         24.2504
  23476963.0554    -847714.98446   -485911.00246                  23476969.2664
        13.0004         12.5004
  23678622.1724    -411833.37745   -246169.83745                  23678629.7704
        11.2504         11.7504
  20780746.2274     -75965.86347    -49223.48947                  20780752.1454
        27.7504         27.5004
  22389265.6484     655779.04746    426259.50846                  22389272.3164
        19.2504         18.2504
 02  7  9 15  4 45.0000000  0  9G26G 6G10G15G17G18G29G23G30
  23589274.6724    -604951.02745   -297269.23145                  23589284.1684
         9.2504          9.5004
  20322910.1724    -109861.59747    -76905.32146                  20322915.9494
        26.5004         25.0004
  22251875.3054     655689.08647    510925.84346                  22251882.1994
        20.5004         21.2504
  22066946.8754    -580127.18746   -393170.10946                  22066953.2154
        18.2504         18.7504
  21417576.1024    -407582.54247   -263997.70146                  21417582.3834
        21.0004         24.2504
  23467310.2814    -898439.63846   -525436.65646                  23467316.8204
        12.7504         12.5004
  23673293.0704    -439839.88645   -267993.08745                  23673301.0784
        11.2504         11.7504
  20780737.3134     -76013.61548    -49260.70247                  20780743.3014
        28.2504         27.7504
  22399129.2424     707612.48846    466649.15546                  22399135.7234
        18.7504         18.2504
 02  7  9 15  5  0.0000000  0  9G26G 6G10G15G17G18G29G23G30
  23582022.7974    -643060.04045   -326964.52745                  23582031.2854
         9.2504          9.2504
  20322542.0084    -111797.30547    -78413.67446                  20322547.8554
        27.0004         25.0004
  22260144.6024     699144.46146    544787.15946                  22260151.7544
        19.7504         21.0004
  22061205.2584    -610300.14646   -416681.48646                  22061212.2234
        18.0004         19.0004
  21413782.4614    -427517.66647   -279531.56146                  21413788.8364
        20.5004         24.0004
  23457727.7344    -948797.37346   -564676.41746                  23457734.0044
        13.5004         12.0004
  23668039.3054    -467446.99745   -289505.09245                  23668046.7384
        11.7504         11.7504
  20780815.0314     -75603.49047    -48941.11947                  20780821.1374
        27.2504         27.7504
  22409065.8444     759828.33846    507336.77846                  22409072.3134
        18.5004         18.7504
 02  7  9 15  5 15.0000000  0  9G26G 6G10G15G17G18G29G23G30
  23574841.6254    -680797.25145   -356370.09345                  23574850.6884
         9.2504         10.0004
  20322250.8984    -113325.24947    -79604.28946                  20322256.9804
        26.5004         25.2504
  22268490.7344     743004.79546    578964.02146                  22268498.0164
        19.2504         20.7504
  22055533.4384    -640105.87846   -439906.72046                  22055540.2234
        18.2504         19.0004
  21410059.0394    -447085.00347   -294778.84046                  21410065.7194
        20.0004         24.0004
  23448211.9454    -998801.22246   -603640.43646                  23448217.3484
        13.5004         12.7504
  23662859.1644    -494667.85045   -310716.13045                  23662865.0234
        11.7504         11.5004
  20780977.7584     -74748.85047    -48275.16947                  20780983.8284
        27.0004         27.5004
  22419072.4614     812413.05946    548311.83646                  22419079.1414
        18.5004         18.7504
 02  7  9 15  5 30.0000000  0  9G26G 6G10G15G17G18G29G23G30
  23567730.1174    -718168.06945   -385490.19645                  23567738.2774
         9.5004         10.0004
  20322036.8984    -114451.14247    -80481.60446                  20322042.9104
        26.2504         25.0004
  22276913.1414     787263.92246    613451.63446                  22276920.4104
        19.7504         21.0004
  22049930.2114    -669550.28746   -462850.40046                  22049936.9024
        18.5004         19.0004
  21406404.4774    -466290.55547   -309744.20646                  21406410.8874
        20.2504         24.0004
  23438763.2974   -1048456.69246   -642332.95946                  23438769.2624
        14.2504         12.7504
  23657751.5554    -521507.78645   -331630.32545                  23657758.6254
        11.0004         11.2504
  20781223.8054     -73455.61247    -47267.45747                  20781229.8284
        27.2504         27.5004
  22429148.1564     865360.32446    589569.40346                  22429154.7894
        18.2504         18.5004
 02  7  9 15  5 45.0000000  0  9G26G 6G10G15G17G18G29G23G30
  23560688.0634    -755176.63745   -414328.04645                  23560695.3674
         9.5004          9.7504
  20321898.2344    -115179.49647    -81049.16646                  20321904.1994
        26.5004         25.0004
  22285410.0474     831916.87647    648246.12946                  22285417.1414
        20.2504         21.0004
  22044395.0864    -698638.03246   -485516.17146                  22044401.7894
        18.2504         19.2504
  21402817.8054    -485138.76747   -324431.11446                  21402824.0164
        20.7504         24.0004
  23429379.2504   -1097768.11346   -680757.40346                  23429385.3324
        14.7504         12.5004
  23652716.3364    -547971.27945   -352251.22445                  23652723.0864
        11.0004         11.0004
  20781552.4694     -71728.53948    -45921.69347                  20781558.5044
        28.2504         27.5004
  22439291.6024     918665.16646    631105.59446                  22439298.4844
        18.5004         18.7504
 02  7  9 15  6  0.0000000  0  9G26G 6G10G15G17G18G29G23G30
  23553712.5864    -791832.97545   -442891.40145                  23553718.6454
        10.0004          9.5004
  20321833.3284    -115520.55147    -81314.92346                  20321839.3284
        26.2504         24.7504
  22293980.3754     876952.89747    683339.12046                  22293987.5514
        20.0004         20.5004
  22038925.5394    -727379.48546   -507912.09646                  22038932.7154
        18.0004         19.2504
  21399297.2194    -503640.25747   -338847.85546                  21399303.7234
        21.2504         24.2504
  23420059.2894   -1146745.60346   -718921.65446                  23420064.9384
        14.2504         12.2504
  23647749.8674    -574068.24845   -372586.49945                  23647756.4414
        11.0004         10.7504
  20781961.8984     -69578.03948    -44245.97347                  20781967.9344
        28.2504         27.7504
  22449501.2424     972316.75446    672911.98146                  22449507.7114
        18.7504         18.2504
 02  7  9 15  6 15.0000000  0  9G26G 6G10G15G17G18G29G23G30
  23546802.4844    -828143.59945   -471185.32745                  23546808.1684
        10.5004          9.5004
  20321840.6334    -115481.06847    -81284.16646                  20321846.5044
        26.5004         25.2504
  22302622.1254     922364.61447    718724.85746                  22302629.1844
        20.2504         20.5004
  22033521.1024    -755781.58346   -530043.59346                  22033528.4884
        17.5004         19.5004
  21395840.8914    -521801.89047   -352999.77346                  21395847.1254
        21.2504         23.7504
  23410800.8284   -1195395.86346   -756830.91546                  23410807.4264
        12.7504         12.0004
  23642852.0554    -599805.46645   -392641.47845                  23642859.5234
        11.5004         11.2504
  20782450.3754     -67011.10648    -42245.76947                  20782456.3984
        28.2504         27.5004
  22459775.4614    1026307.83946    714982.89846                  22459781.5784
        18.2504         18.2504
 02  7  9 15  6 30.0000000  0  9G26G 6G10G15G17G18G29G23G30
  23539958.0234    -864112.77645   -499213.25745                  23539964.5274
        10.2504          9.5004
  20321919.8444    -115065.66147    -80960.47446                  20321925.7624
        26.7504         25.0004
  22311334.1954     968146.97147    754399.40246                  22311341.0664
        20.0004         20.5004
  22028179.8444    -783849.07946   -551914.34646                  22028186.8094
        17.7504         19.0004
  21392448.8754    -539628.47147   -366890.61446                  21392455.0514
        20.7504         23.7504
  23401604.8284   -1243723.39446   -794488.69446                  23401610.4774
        13.0004         12.5004
  23638021.7734    -625187.29645   -412419.48945                  23638029.2424
        11.2504         10.7504
  20783017.0864     -64032.64148    -39924.89147                  20783023.0864
        28.2504         27.5004
  22470113.1094    1080633.35746    757314.42346                  22470119.5204
        18.0004         17.7504
 02  7  9 15  6 45.0000000  0  9G26G 6G10G15G17G18G29G23G30
  23533177.1884    -899745.86445   -526979.26845                  23533183.1054
        11.0004          9.7504
  20322069.3444    -114279.89547    -80348.19746                  20322075.3094
        27.0004         25.2504
  22320115.7194    1014293.83747    790357.98246                  22320122.3874
        20.5004         20.2504
  22022901.4534    -811587.69746   -573528.85246                  22022908.0634
        18.5004         19.0004
  21389119.0314    -557125.78947   -380524.88546                  21389125.2424
        20.5004         23.7504
  23392468.5784   -1291733.65345   -831899.25246                  23392474.6254
        11.7504         12.2504
  23633258.4384    -650219.01245   -431924.70445                  23633265.6374
        10.5004         10.5004
  20783661.0164     -60648.37648    -37287.80047                  20783666.9804
        28.0004         27.5004
  22480513.3444    1135287.04046    799901.66746                  22480519.4494
        18.2504         17.2504
 02  7  9 15  7  0.0000000  0  9G26G 6G10G15G17G18G29G23G30
  23526459.0004    -935049.32845   -554488.39845                  23526465.6914
        10.7504          9.5004
  20322288.3754    -113130.48047    -79452.55946                  20322294.1644
        26.7504         25.2504
  22328965.2504    1060798.01347    826594.98646                  22328971.8954
        20.2504         20.0004
  22017684.4454    -839004.22046   -594892.36546                  22017690.6454
        18.5004         19.5004
  21385850.7114    -574300.65847   -393907.90146                  21385857.0514
        20.2504         23.7504
  23383391.3984   -1339433.10946   -869067.63146                  23383398.2194
        12.5004         12.0004
  23628560.2974    -674907.19645   -451162.25145                  23628568.5514
        10.0004         10.2504
  20784381.0704     -56865.16447    -34339.84247                  20784387.2584
        27.7504         27.7504
  22490974.5554    1190261.80946    842739.11046                  22490980.7544
        17.7504         17.5004
 02  7  9 15  7 15.0000000  0  9G26G 6G10G15G17G18G29G23G30
  23519803.2734    -970026.98945   -581743.70345                  23519809.9884
        11.0004         10.0004
  20322575.3444    -111621.70947    -78276.89747                  20322581.0744
        27.7504         25.7504
  22337881.6024    1107654.77047    863106.72746                  22337888.0594
        20.5004         20.5004
  22012527.6564    -866103.02246   -616008.29946                  22012534.2774
        19.0004         19.5004
  21382643.0554    -591157.44946   -407043.05446                  21382649.9144
        19.7504         24.0004
  23374372.8444   -1386826.08045   -905997.19145                  23374379.4534
        11.5004         11.7504
  23623926.7504    -699256.04245   -470135.33445                  23623933.8094
        10.7504         10.5004
  20785175.8674     -52687.52048    -31084.54047                  20785182.0084
        28.2504         27.5004
  22501496.3204    1245552.87146    885823.01046                  22501502.5554
        17.5004         16.7504
 02  7  9 15  7 30.0000000  0  9G26G 6G10G15G17G18G29G23G30
  23513208.9064   -1004681.97145   -608747.54445                  23513215.7274
        11.0004         10.2504
  20322930.2504    -109756.79547    -76823.72347                  20322936.0514
        27.2504         25.7504
  22346864.4144    1154860.38446    899890.31646                  22346871.0124
        19.5004         19.7504
  22007430.4224    -892887.50646   -636879.30446                  22007437.0204
        19.2504         19.2504
  21379495.2504    -607699.69747   -419933.12346                  21379501.7424
        20.5004         24.2504
  23365411.6414   -1433915.47145   -942690.19346                  23365418.6174
        11.5004         12.0004
  23619357.4694    -723268.45145   -488846.30345                  23619365.9574
        10.2504         10.7504
  20786045.3984     -48118.91648    -27524.59047                  20786051.3874
        28.5004         27.5004
  22512077.3054    1301156.41746    929150.40946                  22512083.7624
        17.5004         16.7504
 02  7  9 15  7 45.0000000  0  9G26G 6G10G15G17G18G29G23G30
  23506673.5004   -1039021.76445   -635505.79445                  23506680.5354
        11.0004          9.7504
  20323351.3834    -107543.64747    -75099.19346                  20323357.3484
        26.7504         25.2504
  22355912.1484    1202406.41246    936939.14946                  22355918.7584
        19.0004         19.7504
  22002392.0164    -919365.69546   -657511.65246                  22002398.6844
        19.5004         19.7504
  21376405.6884    -623935.42747   -432584.34646                  21376412.0394
        20.5004         24.0004
  23356507.0004   -1480709.10046   -979152.72846                  23356513.8444
        12.2504         12.2504
  23614850.7344    -746952.15845   -507301.10045                  23614858.0864
        10.5004         10.7504
  20786987.6414     -43167.43848    -23666.30547                  20786993.6644
        28.7504         27.5004
  22522716.3364    1357064.11146    972714.79546                  22522722.7584
        16.7504         16.7504
 02  7  9 15  8  0.0000000  0  9G26G 6G10G15G17G18G29G23G30
  23500198.9224   -1073045.81945   -662018.00445                  23500204.8984
        10.7504         10.0004
  20323838.8594    -104981.93847    -73103.06746                  20323844.8714
        26.7504         25.2504
  22365024.8054    1250292.73246    974253.14446                  22365031.4144
        19.2504         19.5004
  21997411.6644    -945537.39046   -677905.17046                  21997418.3554
        19.5004         19.7504
  21373374.4064    -639864.49347   -444996.60146                  21373380.7114
        20.5004         24.0004
  23347658.9694   -1527206.65246  -1015384.59046                  23347665.4144
        12.5004         12.5004
  23610406.4064    -770306.70745   -525499.43645                  23610414.3914
        10.7504         10.7504
  20788002.8054     -37832.94048    -19509.54847                  20788008.7814
        28.5004         27.2504
  22533412.9144    1413275.65946   1016515.94946                  22533419.4414
        16.7504         16.5004
 02  7  9 15  8 15.0000000  0  9G26G 6G10G15G17G18G29G23G30
  23493782.8674   -1106762.80145   -688290.95545                  23493789.0904
        10.2504          9.0004
  20324390.9924    -102080.58647    -70842.28046                  20324396.8634
        27.2504         25.5004
  22374200.0634    1298509.83946   1011824.89846                  22374206.5554
        19.2504         19.7504
  21992488.1094    -971411.57746   -698066.86746                  21992494.9184
        19.5004         19.7504
  21370399.6414    -655495.87047   -457176.89246                  21370405.7344
        21.0004         24.0004
  23338865.7344   -1573416.73046  -1051392.40646                  23338872.4384
        12.7504         13.0004
  23606023.4304    -793340.81845   -543448.05045                  23606030.4774
        11.7504         10.7504
  20789089.0234     -32124.57448    -15061.47247                  20789095.1054
        28.0004         27.2504
  22544165.9144    1469781.59346   1060546.50346                  22544172.4774
        16.7504         17.0004
 02  7  9 15  8 30.0000000  0  9G26G 6G10G15G17G18G29G23G30
  23487425.6954   -1140171.15145   -714323.41145                  23487432.2114
        10.5004          9.7504
  20325007.9454     -98838.42847    -68315.93046                  20325013.8054
        27.0004         25.5004
  22383438.8054    1347058.51746   1049655.02546                  22383445.4144
        18.5004         19.5004
  21987621.1094    -996987.19746   -717995.91446                  21987627.6374
        19.2504         19.7504
  21367482.0634    -670828.64447   -469124.49646                  21367488.3324
        20.7504         24.0004
  23330127.0704   -1619338.13146  -1087175.29646                  23330134.7504
        12.0004         13.0004
  23601701.4454    -816053.02746   -561145.86145                  23601707.0594
        12.2504         11.2504
  20790246.6414     -26041.36948    -10321.31647                  20790252.6414
        28.2504         27.2504
  22554974.6024    1526582.67146   1104807.02846                  22554981.4104
        16.5004         16.7504
 02  7  9 15  8 45.0000000  0  9G26G 6G10G15G17G18G29G23G30
  23481125.1884   -1173280.14545   -740122.59345                  23481130.8594
        11.0004          9.7504
  20325687.9924     -95264.88147    -65531.34846                  20325693.7584
        27.2504         25.2504
  22392738.3134    1395928.82046   1087735.77046                  22392744.7584
        18.5004         19.2504
  21982809.1724   -1022273.90746   -737699.82946                  21982815.9224
        18.5004         19.5004
  21364619.2504    -685872.35947   -480846.87646                  21364625.6134
        20.2504         23.7504
  23321442.0704   -1664980.05146  -1122740.40146                  23321448.7504
        12.0004         12.7504
  23597438.9064    -838452.69246   -578600.12845                  23597444.6484
        12.0004         11.0004
  20791473.6954     -19592.96848     -5296.58747                  20791479.6604
        28.2504         27.2504
  22565838.0474    1583668.92146   1149289.77146                  22565844.2344
        16.7504         16.7504
 02  7  9 15  9  0.0000000  0  9G26G 6G10G15G17G18G29G23G30
  23474881.7344   -1206088.21645   -765687.29745                  23474887.7344
        11.0004          9.2504
  20326431.2504     -91358.67447    -62487.56046                  20326437.1914
        27.5004         25.2504
  22402099.4844    1445121.44046   1126067.66146                  22402106.2464
        18.7504         19.2504
  21978052.5944   -1047270.54946   -757177.72446                  21978058.7464
        19.2504         19.5004
  21361811.6564    -700625.98046   -492343.19746                  21361818.2544
        19.7504         24.0004
  23312809.9224   -1710341.22846  -1158086.73446                  23312817.3914
        12.5004         13.0004
  23593236.2424    -860538.20546   -595809.59445                  23593242.2894
        12.0004         11.2504
  20792770.4844     -12778.31448        13.53147                  20792776.5434
        28.2504         27.0004
  22576755.6414    1641041.15546   1193995.36646                  22576762.4844
        16.2504         17.0004
 02  7  9 15  9 15.0000000  0  9G26G 6G10G15G17G18G29G23G30
  23468694.7734   -1238602.38445   -791022.95845                  23468701.4304
        11.0004         10.2504
  20327236.5394     -87127.27147    -59190.36646                  20327242.5274
        27.0004         25.5004
  22411520.5554    1494628.49246   1164644.56946                  22411527.0234
        19.2504         19.0004
  21973349.6024   -1071984.63646   -776435.42746                  21973355.9534
        18.7504         19.2504
  21359058.1414    -715097.00647   -503619.32346                  21359064.7734
        20.0004         24.0004
  23304230.1024   -1755428.87346  -1193219.94946                  23304237.0204
        13.5004         13.2504
  23589091.5864    -882316.92945   -612780.00745                  23589097.7504
        11.5004         11.5004
  20794135.5864      -5605.07348      5603.06947                  20794141.6334
        28.0004         27.2504
  22587726.0164    1698691.35146   1238917.53946                  22587732.6374
        16.7504         17.0004
 02  7  9 15  9 30.0000000  0  9G26G 6G10G15G17G18G29G23G30
  23462563.2734   -1270822.83446   -816129.76145                  23462570.5434
        12.0004         11.0004
  20328103.2894     -82571.05047    -55640.07246                  20328109.2304
        27.0004         25.2504
  22421000.8204    1544449.22046   1203465.91046                  22421007.3484
        19.7504         19.0004
  21968700.4224   -1096416.63846   -795473.33946                  21968706.8794
        19.0004         19.5004
  21356357.9844    -729286.01247   -514675.68746                  21356364.6054
        20.5004         24.2504
  23295702.2034   -1800243.21746  -1228140.16846                  23295708.5904
        14.5004         13.5004
  23585005.8594    -903788.97445   -629511.43745                  23585012.5984
        11.5004         11.5004
  20795568.7424       1926.17847     11471.57447                  20795574.8484
        27.5004         27.2504
  22598749.2344    1756618.64146   1284055.64446                  22598755.8674
        17.0004         17.2504
 02  7  9 15  9 45.0000000  0  9G26G 6G10G15G17G18G29G23G30
  23456488.0234   -1302747.92346   -841006.44045                  23456495.0004
        12.2504         11.0004
  20329032.5084     -77688.68547    -51835.64146                  20329038.3204
        27.2504         25.2504
  22430541.1644    1594584.41046   1242532.27946                  22430547.8554
        19.5004         19.0004
  21964105.0314   -1120565.43846   -814290.58346                  21964111.6174
        19.7504         20.0004
  21353712.1334    -743191.79147   -525511.35846                  21353718.7074
        20.5004         24.0004
  23287226.4844   -1844782.74746  -1262846.26846                  23287232.6724
        14.5004         14.0004
  23580978.4534    -924952.79746   -646002.69546                  23580986.1564
        12.2504         12.0004
  20797070.0864       9816.55547     17619.92047                  20797076.0634
        27.2504         26.7504
  22609825.3674    1814823.84146   1329410.30246                  22609832.0824
        16.5004         17.2504
 02  7  9 15 10  0.0000000  0  9G26G 6G10G15G17G18G29G23G30
  23450467.9534   -1334386.61446   -865659.92045                  23450475.8324
        12.0004         11.0004
  20330021.9774     -72489.34047    -47784.21746                  20330027.7194
        27.2504         25.2504
  22440139.7974    1645024.37546   1281836.12946                  22440146.7504
        17.7504         18.7504
  21959561.7734   -1144440.26546   -832894.33246                  21959568.4884
        19.7504         20.5004
  21351117.9064    -756823.71647   -536133.64446                  21351124.3984
        20.7504         23.7504
  23278801.5554   -1889056.59146  -1297345.32846                  23278807.9414
        14.2504         13.7504
  23577007.5234    -945817.63246   -662260.98946                  23577015.1334
        12.5004         12.7504
  20798638.1254      18056.62247     24040.74447                  20798644.1134
        27.2504         26.7504
  22620952.3364    1873297.25446   1374973.94646                  22620959.2774
        16.2504         16.7504
 02  7  9 15 10 15.0000000  0  9G26G 6G10G15G17G18G29G23G30
  23444502.0084   -1365736.93746   -890088.72245                  23444508.5594
        12.5004         10.7504
  20331071.9614     -66971.54447    -43484.64146                  20331077.7854
        27.2504         25.5004
  22449796.2274    1695770.12246   1321378.25246                  22449803.3554
        18.0004         19.0004
  21955070.9064   -1168039.76446   -851283.53946                  21955077.9534
        19.7504         20.7504
  21348576.2194    -770180.53647   -546541.54646                  21348582.2544
        21.2504         23.7504
  23270427.3674   -1933063.18946  -1331636.14646                  23270433.6954
        14.2504         13.5004
  23573094.7814    -966381.43645   -678284.68545                  23573101.8284
        11.7504         11.7504
  20800272.9064      26647.72147     30735.10547                  20800278.9774
        27.5004         27.0004
  22632130.7974    1932039.87846   1420747.36346                  22632137.4064
        16.0004         16.5004
 02  7  9 15 10 30.0000000  0  9G26G 6G10G15G17G18G29G23G30
  23438589.9844   -1396803.55845   -914296.43845                  23438597.3364
        11.7504         11.0004
  20332181.7034     -61140.07147    -38940.64146                  20332187.6334
        27.0004         25.5004
  22459510.3754    1746816.26546   1361154.45746                  22459516.9024
        18.2504         19.0004
  21950631.5164   -1191368.79246   -869461.99546                  21950638.7384
        19.5004         20.0004
  21346085.6254    -783267.01747   -556738.80546                  21346091.6604
        21.2504         23.7504
  23262103.1884   -1976807.02646  -1365722.21246                  23262109.4224
        14.5004         14.0004
  23569238.1024    -986649.00446   -694077.57446                  23569245.4534
        12.0004         12.7504
  20801973.6884      35584.87648     37699.12647                  20801979.7344
        28.2504         26.7504
  22643359.4844    1991046.41846   1466726.44346                  22643366.3674
        16.0004         16.5004
 02  7  9 15 10 45.0000000  0  9G26G 6G10G15G17G18G29G23G30
  23432731.6484   -1427587.59045   -938283.96445                  23432738.5084
        11.2504         11.5004
  20333350.7974     -54996.33047    -34153.31346                  20333356.8204
        27.2504         25.2504
  22469280.6644    1798160.86846   1401163.22446                  22469287.3444
        18.0004         19.0004
  21946243.2344   -1214428.97646   -887430.94746                  21946250.0784
        18.5004         19.7504
  21343646.4924    -796084.94847   -566726.79546                  21343652.5394
        21.0004         23.7504
  23253828.6484   -2020289.49746  -1399604.61246                  23253835.0704
        14.0004         13.0004
  23565437.3444   -1006621.67545   -709640.66546                  23565445.2584
        11.7504         12.5004
  20803740.0704      44866.36347     44931.45547                  20803746.0704
        27.7504         27.0004
  22654637.8134    2050314.99046   1512909.70046                  22654644.4574
        16.2504         16.5004
 02  7  9 15 11  0.0000000  0  9G26G 6G10G15G17G18G29G23G30
  23426927.3984   -1458091.11645   -962052.87845                  23426934.6914
        11.0004         11.0004
  20334578.9694     -48542.68947    -29124.51646                  20334584.9454
        27.0004         25.2504
  22479107.4774    1849801.16446   1441402.40146                  22479114.7344
        17.7504         19.0004
  21941905.4844   -1237222.77146   -905192.34446                  21941912.1644
        18.2504         19.5004
  21341257.8364    -808636.77847   -576507.44146                  21341263.7774
        20.7504         23.7504
  23245603.5084   -2063512.78646  -1433285.07146                  23245609.7664
        14.0004         13.0004
  23561692.4534   -1026301.48146   -724975.55846                  23561699.4534
        13.0004         12.7504
  20805571.2734      54489.62247     52430.09647                  20805577.2154
        27.2504         26.7504
  22665965.5004    2109842.58446   1559294.78046                  22665972.2274
        16.5004         16.5004
 02  7  9 15 11 15.0000000  0  9G26G 6G10G15G17G18G29G23G30
  23421175.8674   -1488314.07445   -985603.21545                  23421182.6994
        10.7504         11.2504
  20335865.9304     -41779.35847    -23854.38846                  20335871.8244
        27.2504         25.2504
  22488990.7114    1901736.40746   1481871.39946                  22488997.7464
        18.0004         19.5004
  21937618.7034   -1259750.47846   -922746.38946                  21937625.3014
        18.7504         19.5004
  21338920.3364    -820922.85447   -586081.00346                  21338926.4774
        20.2504         23.5004
  23237427.6094   -2106477.07146  -1466763.69046                  23237434.2424
        13.2504         13.2504
  23558003.2504   -1045688.49046   -740082.30446                  23558010.7424
        12.7504         12.5004
  20807467.3204      64454.19547     60194.68947                  20807473.3444
        27.2504         26.7504
  22677342.5004    2169628.59146   1605881.23346                  22677349.2274
        15.7504         16.2504
 02  7  9 15 11 30.0000000  0  9G26G 6G10G15G17G18G29G23G30
  23415477.2344   -1518259.64245  -1008937.36345                  23415484.1884
         9.7504         11.0004
  20337211.1724     -34709.84147    -18345.67446                  20337217.1024
        27.2504         25.2504
  22498928.6884    1953962.78446   1522567.26746                  22498935.7344
        18.2504         19.0004
  21933382.0084   -1282015.67246   -940095.87846                  21933388.3594
        18.7504         19.5004
  21336632.0004    -832946.84047   -595450.34146                  21336638.2704
        20.7504         23.7504
  23229300.5004   -2149185.69546  -1500043.10346                  23229307.3204
        12.7504         12.7504
  23554369.0234   -1064785.92945   -754963.38746                  23554376.3984
        11.7504         12.2504
  20809427.7344      74756.40947     68222.39347                  20809433.7934
        27.0004         26.7504
  22688768.0084    2229669.01446   1652665.92646                  22688775.2544
        15.5004         16.0004
 02  7  9 15 11 45.0000000  0  9G26G 6G10G15G17G18G29G23G30
  23409830.9304   -1547930.36845  -1032057.35545                  23409838.5744
         9.2504         10.5004
  20338614.1174     -27337.01548    -12600.62846                  20338619.8594
        28.0004         25.2504
  22508921.7734    2006476.84646   1563487.29646                  22508928.6564
        19.2504         19.5004
  21929194.5784   -1304021.40746   -957243.19446                  21929200.7544
        19.5004         19.7504
  21334393.5554    -844711.77547   -604617.82746                  21334399.8484
        20.7504         23.7504
  23221221.2114   -2191641.60446  -1533125.60546                  23221228.0554
        12.5004         12.7504
  23550789.3834   -1083596.51345   -769620.94646                  23550796.4654
        11.7504         12.5004
  20811451.9614      85393.15447     76510.76647                  20811457.9144
        27.0004         26.7504
  22700241.1484    2289960.38846   1699646.16546                  22700248.2304
        15.2504         15.5004
 02  7  9 15 12  0.0000000  0  9G26G 6G10G15G17G18G29G23G30
  23404235.5554   -1577334.18745  -1054969.39645                  23404243.6214
         9.0004         10.7504
  20340073.4304     -19669.05748     -6625.60546                  20340079.3834
        28.0004         25.5004
  22518968.1174    2059269.90046   1604624.72246                  22518974.9884
        18.7504         19.0004
  21925054.6954   -1325776.05246   -974194.85346                  21925061.2114
        19.7504         20.0004
  21332202.1564    -856225.98247   -613589.93046                  21332208.3094
        21.2504         24.0004
  23213188.7344   -2233852.44346  -1566017.14246                  23213195.8054
        12.7504         13.5004
  23547262.8984   -1102128.38346   -784061.36646                  23547269.2624
        12.2504         12.2504
  20813538.2424      96356.02547     85053.25247                  20813544.1724
        27.2504         26.5004
  22711760.2344    2350494.07746   1746815.22646                  22711767.2344
        15.2504         15.5004
 02  7  9 15 12 15.0000000  0  9G26G 6G10G15G17G18G29G23G30
  23398691.1334   -1606469.63145  -1077672.28245                  23398699.4694
         9.0004         10.2504
  20341588.8984     -11704.85747      -419.74746                  20341594.7814
        27.7504         25.5004
  22529067.6094    2112342.51346   1645979.98246                  22529074.6804
        18.5004         19.2504
  21920962.7344   -1347278.63446   -990950.10246                  21920969.0744
        19.5004         20.0004
  21330058.9924    -867488.51747   -622365.93646                  21330065.2974
        21.2504         24.2504
  23205203.0004   -2275817.02946  -1598716.78446                  23205209.0824
        13.0004         13.2504
  23543789.8674   -1120380.09146   -798283.41846                  23543795.6684
        12.5004         12.5004
  20815686.5164     107645.84048     93850.50847                  20815692.3874
        28.0004         27.0004
  22723325.7194    2411270.61446   1794173.52346                  22723331.9414
        15.0004         15.2504
 02  7  9 15 12 30.0000000  0  9G26G 6G10G15G17G18G29G23G30
  23393198.1024   -1635336.64745  -1100165.99745                  23393204.5234
         9.7504         10.2504
  20343160.7974      -3444.56747      6016.83946                  20343166.7504
        27.7504         25.5004
  22539220.1884    2165693.94446   1687552.51446                  22539227.2934
        18.7504         19.2504
  21916918.7974   -1368529.27846  -1007509.03546                  21916925.2894
        19.5004         20.5004
  21327963.6094    -878499.78647   -630946.13846                  21327969.7974
        21.2504         24.2504
  23197264.1174   -2317535.44246  -1631224.61846                  23197270.1764
        14.2504         13.2504
  23540369.6564   -1138351.61645   -812287.17546                  23540376.3594
        11.7504         12.0004
  20817897.1024     119262.25148    102902.26247                  20817903.0434
        28.0004         27.0004
  22734937.3834    2472289.37846   1841720.56946                  22734944.0634
        15.2504         15.0004
 02  7  9 15 12 45.0000000  0  9G26G 6G10G15G17G18G29G23G30
  23387755.5314   -1663935.36345  -1122450.66445                  23387761.1804
        10.2504         10.2504
  20344789.1414       5111.39447     12683.80346                  20344795.0354
        27.7504         25.5004
  22549425.2814    2219323.48146   1729341.75546                  22549432.2234
        19.2504         19.2504
  21912922.5944   -1389528.56246  -1023872.09646                  21912929.3444
        19.2504         19.7504
  21325915.9224    -889260.34047   -639330.97746                  21325922.1914
        21.5004         24.2504
  23189372.6024   -2359007.87346  -1663540.75746                  23189379.0004
        14.5004         14.2504
  23537002.6644   -1156043.27145   -826072.84146                  23537009.3444
        11.0004         12.2504
  20820169.4534     131204.68948    112208.06147                  20820175.4654
        28.0004         27.2504
  22746594.9224    2533549.48046   1889455.66846                  22746601.0164
        16.0004         15.5004
 02  7  9 15 13  0.0000000  0  9G26G 6G10G15G17G18G29G23G30
  23382363.4384   -1692272.53245  -1144531.51545                  23382369.5784
        10.0004          9.7504
  20346472.1484      13956.01647     19575.72046                  20346477.9964
        27.2504         25.2504
  22559682.2344    2273223.51146   1771341.76746                  22559688.8914
        18.2504         19.2504
  21908973.2424   -1410283.67746  -1040044.89446                  21908980.1374
        18.7504         20.0004
  21323914.6884    -899777.19647   -647525.93146                  21323921.0514
        21.2504         24.2504
  23181526.2424   -2400241.28346  -1695670.66746                  23181532.4184
        14.2504         14.0004
  23533688.2424   -1173461.77845   -839645.69245                  23533695.0514
        11.5004         11.7504
  20822502.9304     143465.85247    121762.21047                  20822509.0354
        27.5004         27.2504
  22758296.6024    2595043.35446   1937372.92246                  22758302.8014
        15.7504         15.5004
 02  7  9 15 13 15.0000000  0  9G26G 6G10G15G17G18G29G23G30
  23377019.9844   -1720350.24245  -1166410.23045                  23377026.8674
         9.7504         10.5004
  20348209.5394      23086.92847     26690.70746                  20348215.3404
        27.2504         25.2504
  22569989.8364    2327391.10146   1813550.25446                  22569996.9304
        18.5004         19.0004
  21905069.7344   -1430796.99846  -1056029.29446                  21905076.4144
        18.7504         19.7504
  21321959.3834    -910052.98047   -655533.03846                  21321965.3484
        21.0004         24.0004
  23173724.5634   -2441237.89146  -1727616.04346                  23173730.8794
        13.2504         14.2504
  23530425.1724   -1190609.38645   -853007.43746                  23530431.3134
        11.5004         12.0004
  20824896.1954     156043.15647    131562.70047                  20824902.1954
        27.2504         27.0004
  22770042.3594    2656768.03946   1985470.04146                  22770049.0864
        15.5004         15.2504
 02  7  9 15 13 30.0000000  0  9G26G 6G10G15G17G18G29G23G30
  23371728.1414   -1748160.27445  -1188080.31545                  23371736.3364
        10.5004         10.5004
  20350003.1024      32511.92047     34034.85046                  20350009.1024
        27.2504         25.2504
  22580350.0004    2381833.72946   1855973.07046                  22580356.8204
        19.2504         19.5004
  21901213.8364   -1451060.92646  -1071819.35246                  21901220.4694
        18.7504         19.7504
  21320051.1804    -920080.02547   -663346.31446                  21320057.2854
        21.5004         24.2504
  23165969.4774   -2481989.65946  -1759370.63846                  23165975.9454
        13.2504         14.0004
  23527214.8054   -1207478.02945   -866151.81945                  23527221.2974
        11.5004         11.5004
  20827351.2584     168944.14847    141615.41647                  20827357.3164
        27.2504         27.0004
  22781833.2974    2718731.03646   2033752.83546                  22781840.7074
        14.2504         15.2504
 02  7  9 15 13 45.0000000  0  9G26G 6G10G15G17G18G29G23G30
  23366485.2424   -1775712.97145  -1209549.90045                  23366494.0944
        10.0004         11.2504
  20351850.5554      42220.41747     41599.90746                  20351856.4614
        27.2504         25.2504
  22590760.2734    2436540.29346   1898601.54446                  22590767.0234
        19.2504         19.5004
  21897402.7504   -1471086.13746  -1087423.39946                  21897409.0784
        18.7504         19.7504
  21318188.4224    -929869.07047   -670974.14646                  21318194.3984
        21.5004         24.2504
  23158259.2504   -2522507.06746  -1790942.61346                  23158265.5554
        14.0004         14.0004
  23524056.0944   -1224078.21545   -879087.01645                  23524062.7854
        11.5004         11.7504
  20829865.7584     182158.02747    151911.95047                  20829871.8054
        27.2504         27.0004
  22793667.9384    2780921.09346   2082212.56046                  22793675.5004
        14.7504         15.2504
 02  7  9 15 14  0.0000000  0  9G26G 6G10G15G17G18G29G23G30
  23361291.5004   -1803006.31645  -1230817.37645                  23361301.0204
        10.7504         11.2504
  20353752.3054      52214.16047     49387.23146                  20353758.3164
        26.7504         25.5004
  22601221.2814    2491512.00546   1941436.62346                  22601228.2344
        19.7504         19.7504
  21893638.2344   -1490870.96346  -1102840.13746                  21893644.8444
        19.0004         20.0004
  21316371.0704    -939418.56847   -678415.30646                  21316377.2114
        21.5004         24.0004
  23150594.2034   -2562788.28346  -1822330.54546                  23150601.0984
        14.2504         14.2504
  23520949.2424   -1240408.03146   -891811.53446                  23520955.3954
        12.2504         12.2504
  20832440.0864     195686.28848    162453.44947                  20832446.0634
        28.2504         27.5004
  22805546.0084    2843339.55446   2130850.26246                  22805552.9964
        14.7504         15.2504
 02  7  9 15 14 15.0000000  0  9G26G 6G10G15G17G18G29G23G30
  23356146.4304   -1830044.81645  -1251886.29745                  23356155.5164
        11.5004         11.2504
  20355707.4304      62488.38847     57393.11846                  20355713.4774
        27.0004         25.2504
  22611731.5084    2546743.72846   1984474.31246                  22611738.4264
        19.2504         19.7504
  21889918.0314   -1510420.25846  -1118073.34146                  21889924.9144
        19.2504         20.0004
  21314598.6334    -948733.31447   -685673.55046                  21314604.7974
        21.0004         24.2504
  23142972.7974   -2602837.95746  -1853538.04846                  23142979.3834
        14.0004         14.5004
  23517892.3364   -1256471.86346   -904328.76046                  23517898.5234
        12.2504         12.2504
  20835073.4844     209523.97048    173236.05447                  20835079.4844
        28.2504         27.2504
  22817466.5864    2905981.16246   2179661.85446                  22817473.4304
        15.5004         15.7504
 02  7  9 15 14 30.0000000  0  9G26G 6G10G15G17G18G29G23G30
  23351049.2274   -1856828.31245  -1272756.51045                  23351057.9964
        11.5004         11.5004
  20357715.7274      73042.81448     65617.33447                  20357721.6564
        28.0004         25.7504
  22622290.9304    2602234.65846   2027713.98046                  22622298.0944
        19.2504         19.5004
  21886242.5234   -1529734.55546  -1133123.43746                  21886249.6524
        19.5004         20.2504
  21312870.5944    -957813.79147   -692749.24546                  21312876.9804
        21.2504         24.0004
  23135395.6804   -2642656.14046  -1884565.17146                  23135403.0314
        13.5004         14.2504
  23514886.0004   -1272269.90645   -916638.90145                  23514892.0474
        11.7504         11.7504
  20837765.2584     223670.62148    184259.42147                  20837771.2344
        28.0004         27.2504
  22829429.0164    2968845.11346   2228646.69646                  22829436.1094
        15.2504         15.7504
 02  7  9 15 14 45.0000000  0  9G26G 6G10G15G17G18G29G23G30
  23346000.2894   -1883362.45045  -1293432.40445                  23346008.3094
        11.0004         11.5004
  20359776.6484      83871.62948     74055.36947                  20359782.5434
        28.0004         25.7504
  22632898.8134    2657978.46646   2071150.69646                  22632905.8134
        18.7504         19.5004
  21882610.7734   -1548819.68946  -1147994.95146                  21882617.9024
        19.2504         20.0004
  21311186.1644    -966665.94347   -699647.01646                  21311192.3164
        21.0004         24.0004
  23127861.5554   -2682248.61946  -1915416.42646                  23127867.9414
        14.5004         14.5004
  23511928.9774   -1287807.76845   -928746.30846                  23511935.2464
        11.7504         12.0004
  20840515.0314     238120.18247    195518.81447                  20840521.0554
        27.7504         27.2504
  22841432.6254    3031925.11646   2277799.88546                  22841439.8134
        15.2504         15.2504
 02  7  9 15 15  0.0000000  0  9G26G 6G10G15G17G18G29G23G30
  23340998.6094   -1909645.95345  -1313913.00545                  23341005.5634
        11.7504         11.0004
  20361889.5474      94975.80548     82707.96247                  20361895.5474
        28.2504         26.0004
  22643554.8444    2713975.62146   2114784.81746                  22643561.9844
        18.7504         19.0004
  21879022.7894   -1567674.88146  -1162687.29546                  21879029.9064
        19.7504         20.2504
  21309545.2814    -975289.04447   -706366.31546                  21309551.2814
        21.2504         24.0004
  23120370.3204   -2721614.22546  -1946090.89046                  23120376.6844
        15.0004         14.2504
  23509021.4224   -1303084.25745   -940650.01346                  23509027.5514
        11.7504         12.2504
  20843322.3444     252873.35648    207014.79347                  20843328.3554
        28.0004         27.0004
  22853477.7664    3095221.60646   2327121.77746                  22853484.0704
        15.2504         15.5004
 02  7  9 15 15 15.0000000  0  9G26G 6G10G15G17G18G29G23G30
  23336044.5314   -1935678.18745  -1334197.80045                  23336050.8834
        11.5004         10.7504
  20364055.1414     106355.70948     91575.41347                  20364061.0824
        28.5004         26.0004
  22654258.9064    2770225.98446   2158616.25046                  22654265.4454
        18.7504         19.2504
  21875478.3594   -1586299.85246  -1177200.23846                  21875485.1914
        19.7504         20.2504
  21307947.8674    -983682.75347   -712906.86646                  21307953.9734
        21.2504         24.2504
  23112922.7114   -2760752.44346  -1976588.18946                  23112928.7584
        15.2504         14.2504
  23506164.3364   -1318098.89346   -952349.73646                  23506170.4064
        12.2504         12.0004
  20846187.6174     267930.29847    218747.46747                  20846193.6414
        27.2504         27.2504
  22865563.8914    3158734.44446   2376612.25246                  22865570.3714
        15.2504         15.2504
 02  7  9 15 15 30.0000000  0  9G26G 6G10G15G17G18G29G23G30
  23331138.3834   -1961459.59245  -1354287.16045                  23331144.6994
        11.2504         11.0004
  20366273.0944     118010.50848    100657.06147                  20366278.9414
        28.0004         26.2504
  22665010.5784    2826728.32046   2202644.03146                  22665017.2814
        18.2504         18.7504
  21871977.8054   -1604695.45146  -1191534.46846                  21871984.2154
        19.7504         20.0004
  21306393.9534    -991848.18647   -719269.53746                  21306399.9654
        21.2504         24.2504
  23105517.9844   -2799663.95846  -2006908.80846                  23105524.1254
        14.7504         13.7504
  23503356.7194   -1332852.24246   -963845.82745                  23503362.5434
        12.2504         11.7504
  20849110.5704     283289.92747    230716.00947                  20849116.6524
        27.7504         27.2504
  22877690.7814    3222462.27046   2426270.25146                  22877697.4494
        15.0004         15.2504
 02  7  9 15 15 45.0000000  0  9G26G 6G10G15G17G18G29G23G30
  23326279.6174   -1986994.92345  -1374184.78345                  23326285.5004
        11.7504         11.2504
  20368542.2584     129935.26048    109949.07147                  20368548.1644
        28.0004         26.2504
  22675809.8594    2883477.12046   2246863.85846                  22675817.0234
        17.7504         18.7504
  21868520.1024   -1622866.85346  -1205693.99046                  21868526.4304
        19.5004         20.0004
  21304882.7344    -999790.39147   -725458.26346                  21304888.8634
        21.2504         24.5004
  23098155.7034   -2838353.67046  -2037056.61246                  23098162.2304
        15.0004         14.5004
  23500598.1954   -1347349.17646   -975142.11346                  23500604.5474
        12.0004         12.0004
  20852090.0634     298947.03848    242916.35347                  20852096.0274
        28.0004         27.2504
  22889857.4844    3286399.68646   2476091.56246                  22889864.9654
        14.5004         15.2504
 02  7  9 15 16  0.0000000  0  9G26G 6G10G15G17G18G29G23G30
  23321466.9774   -2012285.85145  -1393891.94745                  23321474.0704
        11.7504         10.7504
  20370862.3754     142127.94047    119449.85447                  20370868.3634
        27.7504         26.0004
  22686655.1414    2940469.84546   2291273.75246                  22686662.3874
        17.0004         18.0004
  21865104.1954   -1640816.17646  -1219680.46546                  21865110.6294
        19.2504         20.0004
  21303413.4454   -1007511.59947   -731474.78646                  21303419.9494
        21.2504         24.7504
  23090835.2814   -2876823.37946  -2067032.98346                  23090841.3284
        15.7504         14.0004
  23497888.1644   -1361591.43346   -986239.96445                  23497894.0704
        12.5004         11.7504
  20855125.6094     314899.38247    255346.74847                  20855131.6454
        27.7504         27.5004
  22902064.5004    3350544.04246   2526074.11646                  22902071.4654
        14.0004         15.2504
 02  7  9 15 16 15.0000000  0  9G26G 6G10G15G17G18G29G23G30
  23316700.7194   -2037332.39145  -1413408.71345                  23316707.6844
        11.7504         11.7504
  20373233.4694     154588.38147    129159.27547                  20373239.2704
        27.7504         25.7504
  22697547.0234    2997705.83846   2335873.20146                  22697554.6094
        17.0004         18.2504
  21861730.7814   -1658543.75946  -1233494.15646                  21861737.7234
        19.2504         20.0004
  21301986.4694   -1015012.01047   -737319.26346                  21301992.9264
        21.2504         24.5004
  23083556.1804   -2915073.06446  -2096837.91346                  23083561.7464
        15.0004         13.2504
  23495226.7894   -1375579.07546   -997139.41046                  23495232.3554
        13.2504         12.5004
  20858217.3594     331146.57647    268006.89747                  20858223.3484
        27.7504         27.7504
  22914309.7274    3414894.83246   2576217.53646                  22914316.5864
        14.5004         15.0004
 02  7  9 15 16 30.0000000  0  9G26G 6G10G15G17G18G29G23G30
  23311981.1334   -2062133.94746  -1432734.55446                  23311987.8714
        12.0004         12.0004
  20375655.7194     167316.73947    139077.47047                  20375661.5784
        27.5004         25.7504
  22708485.1094    3055184.89546   2380662.05846                  22708492.0514
        17.2504         18.0004
  21858399.5944   -1676049.44046  -1247134.93446                  21858406.3554
        19.7504         20.0004
  21300601.0164   -1022291.63947   -742991.69946                  21300607.5434
        20.7504         24.7504
  23076319.4224   -2953102.45546  -2126471.17346                  23076325.0704
        14.2504         13.7504
  23492613.6484   -1389311.69546  -1007840.13746                  23492619.6954
        13.5004         12.5004
  20861365.1174     347688.57348    280896.76647                  20861371.0474
        28.0004         27.7504
  22926594.6884    3479451.69946   2626521.54646                  22926602.3324
        14.0004         14.5004
 02  7  9 15 16 45.0000000  0  9G26G 6G10G15G17G18G29G23G30
  23307307.6724   -2086692.23445  -1451870.85045                  23307314.8244
        11.7504         11.2504
  20378128.3674     180310.98447    149202.84647                  20378134.3444
        27.7504         25.7504
  22719468.4534    3112904.51446   2425638.38446                  22719474.9344
        17.0004         17.5004
  21855110.2584   -1693335.33746  -1260604.45146                  21855116.8204
        19.7504         20.0004
  21299257.3054   -1029352.66147   -748493.79246                  21299264.0554
        21.2504         24.5004
  23069124.5474   -2990913.45646  -2155934.26746                  23069130.4414
        14.7504         13.5004
  23490048.6484   -1402791.08146  -1018343.52546                  23490054.8954
        13.2504         12.7504
  20864568.5864     364523.14048    294014.60647                  20864574.6914
        28.2504         27.7504
  22938917.9694    3544212.06646   2676984.11246                  22938925.4024
        14.0004         14.5004
 02  7  9 15 17  0.0000000  0  9G26G 6G10G15G17G18G29G23G30
  23302680.3674   -2111008.91145  -1470818.89545                  23302687.4144
        11.7504         11.2504
  20380651.3364     193569.13948    159533.87147                  20380657.1254
        28.0004         25.7504
  22730497.5634    3170862.16446   2470800.16346                  22730504.0904
        17.0004         17.0004
  21851862.1094   -1710403.53746  -1273904.34246                  21851868.3794
        19.7504         20.0004
  21297954.6884   -1036197.14347   -753827.15346                  21297961.3094
        21.5004         24.7504
  23061970.7504   -3028507.99546  -2185228.68046                  23061976.6214
        15.0004         13.7504
  23487531.2814   -1416019.12446  -1028651.07046                  23487537.8914
        12.7504         12.7504
  20867827.1884     381648.02948    307358.67247                  20867833.1884
        28.5004         27.5004
  22951279.6884    3609173.53946   2727603.38046                  22951286.3914
        13.5004         14.2504
 02  7  9 15 17 15.0000000  0  9G26G 6G10G15G17G18G29G23G30
  23298105.0164   -2135053.31246  -1489554.75045                  23298111.8244
        12.5004         11.7504
  20383230.2974     207121.72948    170094.31447                  20383236.2384
        28.0004         26.0004
  22741577.4844    3229087.85646   2516170.83046                  22741583.8244
        17.5004         17.5004
  21848661.2584   -1727223.72146  -1287010.96846                  21848668.1994
        19.2504         20.0004
  21296699.1334   -1042794.93847   -758968.28346                  21296705.5084
        21.2504         24.7504
  23054863.3054   -3065855.34346  -2214330.48146                  23054869.4454
        15.0004         14.0004
  23485067.4144   -1428965.03846  -1038738.78046                  23485074.3554
        13.2504         12.7504
  20871146.9534     399093.45348    320952.50447                  20871152.9774
        28.0004         27.7504
  22963685.7504    3674366.04246   2778402.69946                  22963692.5004
        14.2504         14.0004
 02  7  9 15 17 30.0000000  0  9G26G 6G10G15G17G18G29G23G30
  23293571.7584   -2158872.72646  -1508115.29345                  23293579.2854
        12.0004         11.5004
  20385856.3284     220921.12548    180847.08447                  20385862.1994
        28.2504         26.0004
  22752699.3444    3287533.57646   2561712.92246                  22752706.2624
        17.7504         17.5004
  21845498.8284   -1743843.57746  -1299961.49746                  21845505.9574
        18.7504         20.2504
  21295481.6174   -1049193.62647   -763954.27646                  21295487.8874
        21.7504         25.0004
  23047793.8134   -3103002.94046  -2243276.64246                  23047800.0004
        15.2504         14.0004
  23482648.3754   -1441676.30246  -1048643.63346                  23482654.4694
        13.0004         12.7504
  20874518.9774     416811.60248    334758.85847                  20874525.1054
        28.0004         27.7504
  22976125.9694    3739741.53446   2829344.60946                  22976132.2154
        14.5004         14.0004
 02  7  9 15 17 45.0000000  0  9G26G 6G10G15G17G18G29G23G30
  23289080.8914   -2182472.91745  -1526505.02145                  23289087.5594
        11.5004         11.2504
  20388527.8754     234961.15948    191787.37047                  20388533.7464
        28.5004         26.0004
  22763861.9774    3346192.59146   2607421.22146                  22763868.7734
        17.0004         17.2504
  21842372.9304   -1760269.33446  -1312760.77446                  21842380.1644
        18.7504         20.0004
  21294300.8284   -1055399.51547   -768790.03946                  21294307.1454
        21.2504         25.0004
  23040762.1254   -3139956.79046  -2272071.81646                  23040768.6294
        16.0004         14.7504
  23480273.2344   -1454158.87246  -1058370.27946                  23480280.0784
        13.5004         12.7504
  20877941.2734     434796.02648    348772.68747                  20877947.2274
        28.7504         28.0004
  22988600.5164    3805293.26046   2880423.82146                  22988606.9264
        14.0004         14.2504
 02  7  9 15 18  0.0000000  0  9G26G 6G10G15G17G18G29G23G30
  23284634.4694   -2205837.98545  -1544711.51145                  23284641.9844
        11.0004         11.0004
  20391248.5234     249257.59148    202927.42947                  20391254.5234
        28.5004         26.2504
  22775068.1484    3405080.21546   2653307.67346                  22775074.5234
        17.7504         17.2504
  21839287.3914   -1776485.37946  -1325396.63346                  21839294.1994
        18.5004         20.0004
  21293159.3984   -1061397.10547   -773463.48246                  21293165.6094
        21.7504         24.5004
  23033770.4534   -3176700.97646  -2300703.62246                  23033776.7584
        16.0004         15.5004
  23477944.5704   -1466396.81446  -1067906.34146                  23477950.5594
        14.0004         13.0004
  20881417.0554     453062.27048    363006.12047                  20881423.1024
        28.7504         28.2504
  23001111.0784    3871036.57646   2931652.33146                  23001117.7464
        14.5004         13.7504
 02  7  9 15 18 15.0000000  0  9G26G 6G10G15G17G18G29G23G30
  23280235.0554   -2228958.98145  -1562727.85945                  23280242.1254
        11.5004         11.0004
  20394019.5554     263819.00248    214273.97347                  20394025.5084
        28.5004         26.2504
  22786318.6564    3464204.50646   2699378.52446                  22786324.6564
        17.2504         16.7504
  21836243.0084   -1792483.27146  -1337862.51346                  21836249.3134
        19.2504         20.0004
  21292059.3444   -1067177.91647   -777967.99646                  21292065.5784
        22.0004         24.7504
  23026819.4844   -3213226.85946  -2329165.33646                  23026825.5314
        16.0004         15.2504
  23475664.1804   -1478381.45146  -1077244.99746                  23475670.5084
        13.2504         13.2504
  20884948.2274     471618.58048    377465.58547                  20884954.2504
        28.5004         28.0004
  23013659.7504    3936979.50146   2983036.36146                  23013667.0314
        15.0004         14.2504
 02  7  9 15 18 30.0000000  0  9G26G 6G10G15G17G18G29G23G30
  23275881.1094   -2251840.07345  -1580557.24745                  23275887.5554
        11.5004         11.0004
  20396839.9774     278640.86948    225823.46747                  20396845.9064
        28.7504         26.5004
  22797613.6484    3523560.63846   2745630.03646                  22797620.1294
        16.5004         16.5004
  21833239.1334   -1808267.56046  -1350161.95046                  21833245.4964
        19.2504         20.2504
  21290999.6094   -1072746.61047   -782307.23446                  21291005.9384
        21.5004         24.7504
  23019909.8054   -3249538.77246  -2357460.30646                  23019916.0744
        16.2504         15.7504
  23473430.7424   -1490117.07646  -1086389.63546                  23473437.4574
        13.2504         13.5004
  20888533.7344     490460.36448    392147.49147                  20888539.7704
        28.0004         27.7504
  23026245.0704    4003117.10446   3034572.09746                  23026251.2934
        14.5004         14.0004
 02  7  9 15 18 45.0000000  0  9G26G 6G10G15G17G18G29G23G30
  23271572.3834   -2274479.89345  -1598198.62145                  23271579.2894
        11.7504         11.0004
  20399710.3444     293724.27248    237576.75747                  20399716.3204
        28.5004         26.2504
  22808953.0084    3583149.17946   2792062.64946                  22808960.0434
        16.2504         16.2504
  21830276.4924   -1823837.30846  -1362294.21246                  21830283.1724
        19.7504         20.5004
  21289980.5864   -1078102.20647   -786480.42546                  21289986.6914
        21.7504         24.7504
  23013040.9384   -3285635.40546  -2385587.52446                  23013047.4654
        16.2504         15.5004
  23471245.0084   -1501602.27346  -1095339.12246                  23471251.8284
        13.0004         13.2504
  20892173.7114     509588.43048    407052.48047                  20892179.7934
        28.0004         28.0004
  23038867.5474    4069449.88946   3086259.92046                  23038873.7464
        14.0004         14.0004
 02  7  9 15 19  0.0000000  0  9G26G 6G10G15G17G18G29G23G30
  23267310.0554   -2296877.69445  -1615651.40145                  23267316.2424
        11.7504         10.7504
  20402630.5164     309069.71648    249534.23647                  20402636.5744
        28.0004         26.2504
  22820336.7344    3642970.02046   2838676.25346                  22820343.6294
        16.5004         16.7504
  21827354.3284   -1839192.14446  -1374259.00946                  21827360.9964
        19.2504         20.5004
  21289002.0164   -1083244.33447   -790487.27546                  21289008.3444
        21.5004         24.7504
  23006212.8284   -3321516.19746  -2413546.54746                  23006219.1454
        16.7504         16.2504
  23469107.1334   -1512836.44846  -1104093.01746                  23469114.1914
        12.5004         13.0004
  20895868.3524     529003.01448    422180.71847                  20895874.4104
        28.0004         28.2504
  23051527.0234    4135977.91846   3138099.88346                  23051533.1884
        13.5004         14.0004
 02  7  9 15 19 15.0000000  0  9G26G 6G10G15G17G18G29G23G30
  23263093.2894   -2319035.94845  -1632917.54645                  23263101.7424
        10.7504         11.2504
  20405599.9224     324674.47648    261693.77847                  20405605.7464
        28.2504         26.2504
  22831763.7344    3703020.11146   2885468.50446                  22831770.1914
        16.7504         16.5004
  21824472.7664   -1854334.89446  -1386058.54846                  21824479.4804
        19.2504         20.5004
  21288063.5004   -1088175.90747   -794330.05846                  21288069.8404
        21.5004         24.7504
  22999425.6024   -3357183.66546  -2441339.35646                  22999431.8014
        17.0004         16.0004
  23467016.8444   -1523822.13946  -1112653.27546                  23467024.0554
        12.5004         13.0004
  20899616.5704     548701.19348    437529.93747                  20899622.5354
        29.0004         28.0004
  23064224.2274    4202698.01946   3190089.51146                  23064231.5784
        13.5004         14.0004
 02  7  9 15 19 30.0000000  0  9G26G 6G10G15G17G18G29G23G30
  23258922.4614   -2340953.13845  -1649995.84645                  23258929.8834
        10.5004         10.5004
  20408619.0004     340539.55248    274056.16347                  20408624.9534
        28.2504         26.2504
  22843234.4924    3763299.85946   2932439.71246                  22843241.0664
        16.5004         16.7504
  21821631.9224   -1869264.67546  -1397692.13546                  21821638.9344
        19.2504         20.5004
  21287165.4064   -1092895.97547   -798008.03346                  21287171.8524
        21.7504         25.0004
  22992678.8524   -3392636.57846  -2468964.98246                  22992685.0164
        16.7504         15.7504
  23464973.5394   -1534558.20446  -1121019.03746                  23464980.1484
        13.2504         13.2504
  20903418.9844     568683.69148    453100.71247                  20903424.8554
        29.2504         28.2504
  23076957.4534    4269610.57146   3242229.08346                  23076964.1094
        14.2504         14.2504
 02  7  9 15 19 45.0000000  0  9G26G 6G10G15G17G18G29G23G30
  23254796.8444   -2362634.62045  -1666890.47945                  23254804.1024
        10.5004         10.5004
  20411686.2504     356659.57848    286617.21447                  20411692.1914
        28.0004         26.5004
  22854748.0944    3823803.47446   2979585.37146                  22854754.7034
        16.5004         16.7504
  21818830.0944   -1883986.93846  -1409164.02146                  21818836.8554
        18.5004         20.0004
  21286306.5554   -1097410.14647   -801525.56346                  21286312.9534
        22.2504         25.2504
  22985972.1414   -3427880.37846  -2496427.65746                  22985978.4454
        16.2504         15.5004
  23462977.2034   -1545049.78646  -1129194.27546                  23462984.0634
        13.2504         13.2504
  20907274.6414     588944.87248    468888.65147                  20907280.6994
        28.5004         28.2504
  23089726.0164    4336709.95246   3294514.27046                  23089732.8594
        14.5004         14.5004
 02  7  9 15 20  0.0000000  0  9G26G 6G10G15G17G18G29G23G30
  23250715.0164   -2384082.75145  -1683603.26645                  23250721.7304
        11.0004         10.2504
  20414802.0704     373031.67948    299374.68147                  20414808.1414
        28.0004         26.2504
  22866303.6254    3884527.64246   3026902.87646                  22866310.3754
        16.7504         17.0004
  21816067.5084   -1898504.60046  -1420476.47846                  21816074.1414
        18.7504         20.0004
  21285486.0314   -1101721.44047   -804885.00546                  21285492.1024
        22.5004         25.0004
  22979304.6804   -3462917.73446  -2523729.45746                  22979311.1024
        15.7504         15.5004
  23461026.2814   -1555299.48946  -1137181.03346                  23461033.4224
        12.5004         13.2504
  20911182.6724     609481.74048    484891.40647                  20911188.7544
        28.2504         28.2504
  23102529.5554    4403992.64746   3346942.28446                  23102536.8594
        14.0004         14.0004
 02  7  9 15 20 15.0000000  0  9G26G 6G10G15G17G18G29G23G30
  23246678.9924   -2405296.00746  -1700133.02045                  23246685.0744
        12.0004         10.0004
  20417965.7974     389657.16948    312329.59947                  20417971.5744
        28.2504         26.2504
  22877901.1564    3945473.15946   3074392.86046                  22877908.4144
        16.7504         16.7504
  21813344.0784   -1912816.50646  -1431628.59346                  21813350.5594
        18.7504         20.0004
  21284704.3134   -1105828.53247   -808085.33746                  21284710.2774
        22.5004         24.7504
  22972676.8204   -3497747.08246  -2550869.19946                  22972683.4184
        14.7504         15.5004
  23459122.7114   -1565305.81745  -1144978.16046                  23459129.4964
        11.7504         13.0004
  20915143.2974     630295.27747    501109.74047                  20915149.4264
        27.7504         28.2504
  23115367.9224    4471459.53846   3399513.83546                  23115375.3674
        13.5004         14.2504
 02  7  9 15 20 30.0000000  0  9G26G 6G10G15G17G18G29G23G30
  23242686.2504   -2426274.65146  -1716480.01145                  23242693.8014
        12.5004         10.5004
  20421177.7664     406535.50148    325481.53147                  20421183.7664
        28.0004         26.0004
  22889540.6724    4006638.97346   3122054.51446                  22889547.6604
        17.0004         17.0004
  21810659.6334   -1926923.28346  -1442620.88446                  21810666.2074
        19.7504         20.2504
  21283961.5314   -1109732.26247   -811127.20146                  21283967.6724
        22.0004         24.7504
  22966088.3204   -3532368.88446  -2577847.18846                  22966095.6374
        14.5004         16.0004
  23457265.0864   -1575069.28746  -1152586.06146                  23457271.6604
        12.2504         13.7504
  20919156.7344     651384.64348    517542.99447                  20919162.6994
        28.0004         27.7504
  23128241.2034    4539109.49546   3452228.02846                  23128248.7424
        13.7504         14.2504
 02  7  9 15 20 45.0000000  0  9G26G 6G10G15G17G18G29G23G30
  23238739.4384   -2447018.05146  -1732643.67845                  23238747.0234
        12.7504         11.0004
  20424437.8284     423667.09447    338830.81547                  20424443.7934
        27.7504         26.2504
  22901222.1024    4068025.04846   3169887.78446                  22901229.7344
        17.7504         17.2504
  21808014.2194   -1940824.80146  -1453453.22346                  21808020.8634
        19.5004         19.7504
  21283257.4224   -1113432.43147   -814010.44746                  21283263.4344
        21.5004         25.0004
  22959539.4924   -3566782.58046  -2604663.02546                  22959546.3244
        14.7504         15.7504
  23455453.2734   -1584589.29346  -1160004.24646                  23455460.1804
        13.0004         13.2504
  20923222.3134     672750.01148    534191.32747                  20923228.4534
        28.5004         28.2504
  23141149.8134    4606942.42046   3505084.79246                  23141157.8794
        13.5004         14.0004
 02  7  9 15 21  0.0000000  0  9G26G 6G10G15G17G18G29G23G30
  23234835.0314   -2467534.03445  -1748630.12245                  23234842.0314
        11.7504         11.2504
  20427744.4224     441043.76348    352371.06547                  20427750.3634
        28.2504         26.2504
  22912943.6484    4129622.83346   3217886.02746                  22912950.6254
        18.2504         17.2504
  21805406.4614   -1954529.22746  -1464131.98146                  21805412.9774
        19.7504         20.2504
  21282590.4304   -1116937.20547   -816741.43646                  21282596.7114
        22.2504         25.0004
  22953028.9694   -3600996.17246  -2631322.94246                  22953035.2504
        15.2504         15.5004
  23453686.1804   -1593873.76746  -1167238.89746                  23453692.3794
        13.2504         13.2504
  20927339.0164     694382.93748    551048.15147                  20927345.0044
        28.5004         28.0004
  23154090.8524    4674949.71646   3558077.44146                  23154098.0394
        13.5004         14.5004
 02  7  9 15 21 15.0000000  0  9G26G 6G10G15G17G18G29G23G30
  23230975.1094   -2487818.21745  -1764435.95345                  23230983.1294
        11.5004         11.2504
  20431098.3364     458669.49648    366105.39047                  20431104.3014
        28.7504         26.5004
  22924706.7734    4191435.84546   3266051.98246                  22924713.5594
        18.5004         17.5004
  21802836.6804   -1968032.59546  -1474654.08446                  21802843.2194
        19.7504         20.5004
  21281961.5234   -1120242.78647   -819317.21046                  21281967.4414
        22.2504         25.0004
  22946557.3134   -3635005.51046  -2657823.71046                  22946563.6644
        15.7504         15.5004
  23451965.1804   -1602918.50346  -1174286.70346                  23451971.1094
        12.7504         12.7504
  20931507.0084     716287.21048    568116.41247                  20931513.0784
        28.0004         27.7504
  23167066.1094    4743134.89246   3611208.69246                  23167073.4964
        13.7504         14.2504
 02  7  9 15 21 30.0000000  0  9G26G 6G10G15G17G18G29G23G30
  23227159.8754   -2507868.27945  -1780059.35345                  23227167.0634
        11.2504         11.2504
  20434500.4384     476546.32848    380035.37647                  20434506.2154
        28.5004         26.5004
  22936510.6024    4253465.58146   3314386.81946                  22936516.6604
        19.5004         17.2504
  21800305.9774   -1981332.94446  -1485017.99246                  21800312.9884
        19.5004         20.7504
  21281371.0084   -1123347.16047   -821736.20346                  21281377.0434
        23.0004         25.2504
  22940124.7504   -3668808.45546  -2684163.64546                  22940131.6804
        15.2504         16.0004
  23450290.2424   -1611721.30746  -1181146.02446                  23450296.8874
        12.7504         13.5004
  20935727.3594     738464.66748    585397.54547                  20935733.3714
        28.0004         28.0004
  23180076.0394    4811499.59246   3664479.84946                  23180083.1334
        14.0004         14.2504
 02  7  9 15 21 45.0000000  0  9G26G 6G10G15G17G18G29G23G30
  23223387.7344   -2527689.07845  -1795504.11445                  23223395.0164
        11.0004         11.2504
  20437949.1254     494669.16648    394157.04947                  20437955.1024
        28.5004         26.2504
  22948354.7424    4315706.42346   3362886.15646                  22948360.8244
        19.5004         17.0004
  21797812.5634   -1994435.47146  -1495227.74946                  21797819.2894
        19.7504         20.7504
  21280817.0164   -1126255.59947   -824002.51946                  21280823.1454
        23.0004         25.2504
  22933730.5784   -3702409.89746  -2710346.55546                  22933737.4734
        15.2504         15.2504
  23448660.3984   -1620287.06546  -1187820.64246                  23448667.3634
        12.7504         13.5004
  20939998.6094     760909.94548    602887.36547                  20940004.6804
        28.0004         28.0004
  23193118.4614    4880038.15646   3717886.45946                  23193125.8244
        14.2504         14.2504
 02  7  9 15 22  0.0000000  0  9G26G 6G10G15G17G18G29G23G30
  23219658.5944   -2547286.03545  -1810774.44545                  23219665.4144
        11.5004         11.5004
  20441442.9224     513032.29748    408465.97847                  20441448.9454
        28.0004         26.2504
  22960237.6644    4378152.39746   3411545.34146                  22960244.4844
        19.0004         17.5004
  21795355.9694   -2007346.13147  -1505287.99846                  21795362.2624
        20.0004         21.0004
  21280299.8914   -1128974.04647   -826120.78546                  21280305.9614
        23.0004         25.2504
  22927374.1804   -3735815.41346  -2736376.81446                  22927380.8014
        15.7504         15.2504
  23447074.1884   -1628621.33746  -1194314.86546                  23447081.5744
        13.2504         13.2504
  20944319.4924     783617.08548    620581.23547                  20944325.5164
        28.0004         27.7504
  23206192.4694    4948744.42746   3771423.76146                  23206200.0664
        14.0004         14.0004
 02  7  9 15 22 15.0000000  0  9G26G 6G10G15G17G18G29G23G30
  23215973.3594   -2566653.01545  -1825865.59046                  23215979.5824
        11.2504         12.0004
  20444984.5864     531641.49348    422966.63347                  20444990.5514
        28.2504         26.2504
  22972160.5864    4440808.59846   3460368.31946                  22972167.3364
        18.7504         17.7504
  21792936.8444   -2020059.20847  -1515194.27446                  21792943.2194
        20.0004         20.7504
  21279820.0164   -1131496.81947   -828086.58246                  21279826.1214
        23.0004         25.2504
  22921055.2424   -3769019.21946  -2762249.88846                  22921061.5234
        16.0004         15.5004
  23445533.2504   -1636718.12546  -1200624.06646                  23445539.8714
        13.0004         13.5004
  20948691.4924     806591.68548    638483.51247                  20948697.4804
        28.2504         27.7504
  23219299.6884    5017623.64646   3825095.82946                  23219306.9694
        13.2504         14.0004
 02  7  9 15 22 30.0000000  0  9G26G 6G10G15G17G18G29G23G30
  23212331.4064   -2585791.13845  -1840778.41245                  23212337.3484
        10.7504         11.7504
  20448572.4144     550495.33648    437657.92647                  20448578.4024
        28.2504         26.2504
  22984123.3594    4503673.25746   3509353.75046                  22984130.5354
        18.0004         17.0004
  21790554.6174   -2032576.11547  -1524947.70046                  21790561.0394
        20.0004         21.2504
  21279376.7584   -1133825.41547   -829901.06646                  21279382.8284
        22.7504         25.0004
  22914775.0234   -3802022.49346  -2787966.68846                  22914781.7974
        16.7504         15.5004
  23444037.6724   -1644578.63346  -1206749.12546                  23444043.9064
        13.0004         13.7504
  20953113.9924     829832.04348    656592.88247                  20953119.9804
        28.7504         28.0004
  23232439.1954    5086673.95146   3878901.18646                  23232446.5944
        12.7504         13.5004
 02  7  9 15 22 45.0000000  0  9G26G 6G10G15G17G18G29G23G30
  23208732.8444   -2604703.11445  -1855514.98246                  23208740.3484
        11.0004         12.2504
  20452205.9844     569590.84748    452537.53747                  20452211.9734
        28.2504         26.5004
  22996125.0864    4566742.92046   3558498.91646                  22996131.9064
        17.5004         17.0004
  21788209.3364   -2044899.95947  -1534550.68546                  21788215.5824
        20.0004         20.7504
  21278969.9844   -1135963.02447   -831566.73146                  21278976.0084
        22.7504         25.5004
  22908532.5704   -3834828.00446  -2813529.39346                  22908538.6644
        17.0004         16.0004
  23442586.1414   -1652205.72746  -1212692.31546                  23442593.2814
        13.0004         13.7504
  20957586.4064     853334.90648    674906.79347                  20957592.4414
        28.2504         28.0004
  23245611.1724    5155891.91746   3932837.19546                  23245619.7074
        12.2504         13.0004
 02  7  9 15 23  0.0000000  0  9G26G 6G10G15G17G18G29G23G30
  23205176.7424   -2623389.22645  -1870075.57846                  23205183.6724
        11.7504         12.7504
  20455885.7114     588927.46648    467605.01547                  20455891.6414
        28.2504         26.2504
  23008165.7274    4630016.58346   3607803.04446                  23008172.8094
        16.0004         16.2504
  21785900.6804   -2057031.42246  -1544003.77046                  21785907.1844
        19.7504         20.7504
  21278599.4384   -1137910.34247   -833084.11646                  21278605.5554
        22.7504         25.0004
  22902327.0864   -3867436.04646  -2838938.22546                  22902333.0864
        17.5004         16.0004
  23441178.7894   -1659599.73846  -1218453.88446                  23441186.0004
        13.7504         13.7504
  20962108.6334     877099.47848    693424.63547                  20962114.6684
        28.2504         28.2504
  23258814.9614    5225276.46646   3986903.02646                  23258822.6764
        12.5004         13.2504
 02  7  9 15 23 15.0000000  0  9G26G 6G10G15G17G18G29G23G30
  23201663.7424   -2641851.08546  -1884461.41846                  23201670.8484
        12.5004         13.0004
  20459610.9694     608503.24148    482858.85547                  20459617.0164
        28.7504         26.7504
  23020244.4144    4693491.71046   3657264.16146                  23020251.9884
        15.0004         16.0004
  21783628.5784   -2068972.62047  -1553308.59846                  21783635.0004
        20.0004         20.7504
  21278264.6024   -1139669.31647   -834454.74646                  21278270.9534
        22.2504         25.0004
  22896159.7274   -3899848.56046  -2864194.69946                  22896165.5274
        17.7504         16.2504
  23439815.5704   -1666762.47746  -1224035.22646                  23439822.5234
        13.2504         13.2504
  20966680.2344     901123.55548    712144.68747                  20966686.3634
        28.5004         28.2504
  23272049.4224    5294825.11646   4041096.71046                  23272056.6094
        13.2504         13.2504
 02  7  9 15 23 30.0000000  0  9G26G 6G10G15G17G18G29G23G30
  23198193.2344   -2660090.43046  -1898673.88746                  23198200.2704
        12.7504         12.5004
  20463381.3364     628316.15348    498297.47747                  20463387.3484
        28.7504         26.5004
  23032361.5784    4757165.86346   3706880.34646                  23032368.9304
        14.5004         15.7504
  21781392.1174   -2080725.64947  -1562466.79446                  21781398.4454
        20.5004         21.0004
  21277965.4694   -1141242.13247   -835680.31146                  21277971.7624
        22.0004         25.0004
  22890028.3444   -3932067.47746  -2889300.33046                  22890034.2504
        17.5004         16.2504
  23438496.9224   -1673695.66946  -1229437.72346                  23438503.1454
        14.0004         13.2504
  20971300.6884     925404.87648    731065.18947                  20971306.7464
        28.5004         28.0004
  23285315.6644    5364535.41746   4095416.37646                  23285322.1564
        13.2504         13.2504
 02  7  9 15 23 45.0000000  0  9G26G 6G10G15G17G18G29G23G30
  23194765.2424   -2678101.17446  -1912708.21546                  23194771.8984
        13.0004         12.7504
  20467197.9384     648372.01848    513925.40847                  20467203.6914
        28.5004         27.0004
  23044517.0634    4821044.52946   3756655.89546                  23044525.0824
        15.0004         16.2504
  21779192.1724   -2092284.73847  -1571473.87446                  21779198.2424
        20.2504         20.7504
  21277702.5554   -1142623.28547   -836756.53446                  21277709.1294
        22.0004         25.2504
  22883935.1484   -3964086.74646  -2914250.38646                  22883941.0904
        17.0004         16.2504
  23437221.9144   -1680393.43546  -1234656.75146                  23437227.6914
        14.0004         13.2504
  20975971.3984     949948.98548    750190.46047                  20975977.4104
        28.5004         27.7504
  23298612.7344    5434412.72646   4149866.15646                  23298619.7584
        13.5004         13.5004
 02  7  9 15 24  0.0000000  0  9G26G 6G10G15G17G18G29G23G30
  23191380.7664   -2695887.67746  -1926567.80146                  23191387.9414
        12.7504         13.0004
  20471059.8054     668666.13748    529738.99447                  20471065.7934
        28.7504         26.7504
  23056710.6644    4885122.50246   3806586.74346                  23056718.1914
        15.2504         16.5004
  21777028.8444   -2103654.66947  -1580333.56046                  21777035.0664
        20.5004         21.0004
  21277475.3984   -1143817.41047   -837687.01846                  21277481.5984
        22.5004         25.2504
  22877879.3284   -3995910.91646  -2939048.41246                  22877885.1644
        17.5004         16.2504
  23435991.2274   -1686860.27346  -1239695.85946                  23435996.6644
        13.5004         13.2504
  20980691.1954     974750.90148    769516.62047                  20980697.0904
        28.2504         27.7504
  23311940.7974    5504451.80846   4204442.01546                  23311948.2774
        13.2504         13.5004
 02  7  9 15 24 15.0000000  0  9G26G 6G10G15G17G18G29G23G30
  23188038.6804   -2713449.99046  -1940252.72446                  23188045.4774
        12.7504         13.0004
  20474966.8674     689198.14848    545737.94547                  20474972.8674
        28.2504         26.5004
  23068942.5234    4949398.95346   3856672.26946                  23068950.1564
        15.0004         16.5004
  21774900.8364   -2114835.87747  -1589046.17846                  21774907.4104
        20.2504         21.0004
  21277283.4534   -1144825.03747   -838472.17746                  21277289.6764
        22.5004         25.2504
  22871860.2344   -4027540.19746  -2963694.58146                  22871866.2234
        16.7504         16.2504
  23434805.0004   -1693096.27646  -1244555.06746                  23434810.9534
        13.7504         13.0004
  20985459.9064     999810.05848    789043.22547                  20985465.9304
        28.2504         27.7504
  23325299.4534    5574651.92946   4259143.34246                  23325306.9694
        13.2504         13.7504
 02  7  9 15 24 30.0000000  0  9G26G 6G10G15G17G18G29G23G30
  23184738.8754   -2730791.53946  -1953765.59946                  23184745.5084
        13.2504         12.5004
  20478918.2664     709964.38148    561919.42047                  20478924.1484
        28.0004         26.5004
  23081210.7504    5013869.75146   3906909.22846                  23081217.9844
        15.2504         16.2504
  21772808.7504   -2125832.09947  -1597614.65146                  21772815.3954
        20.0004         21.0004
  21277126.7114   -1145649.99347   -839114.99346                  21277133.1094
        22.2504         25.5004
  22865878.0554   -4058978.01346  -2988191.54746                  22865884.0084
        16.5004         16.2504
  23433661.4064   -1699105.05946  -1249237.22846                  23433667.8754
        14.2504         13.7504
  20990276.5944    1025122.53848    808767.22647                  20990282.4884
        29.0004         27.7504
  23338687.9844    5645008.87346   4313966.85346                  23338695.4884
        13.0004         13.5004
 02  7  9 15 24 45.0000000  0  9G26G 6G10G15G17G18G29G23G30
  23181481.3914   -2747907.96646  -1967103.06146                  23181488.6134
        13.0004         12.2504
  20482915.4224     730968.83748    578286.51747                  20482921.2934
        28.0004         26.2504
  23093516.6414    5078538.49446   3957300.43246                  23093523.9804
        15.2504         15.7504
  21770751.9384   -2136639.49547  -1606035.99046                  21770758.4184
        20.0004         21.0004
  21277005.0084   -1146288.45347   -839612.49147                  21277011.4414
        22.2504         25.7504
  22859932.1804   -4090220.39546  -3012536.24046                  22859938.3674
        16.2504         16.0004
  23432562.2664   -1704882.25146  -1253738.94846                  23432569.1094
        14.0004         13.7504
  20995142.2974    1050692.04448    828691.52647                  20995148.3324
        28.7504         28.0004
  23352106.7664    5715526.20446   4368915.33946                  23352113.7664
        12.2504         13.2504
 02  7  9 15 25  0.0000000  0  9G26G 6G10G15G17G18G29G23G30
  23178266.5234   -2764806.22146  -1980270.52246                  23178273.5234
        13.2504         12.2504
  20486956.3444     752204.38248    594833.68247                  20486962.2034
        28.0004         26.5004
  23105858.9774    5143397.46746   4007839.86446                  23105866.0124
        15.0004         15.5004
  21768729.7734   -2147265.31247  -1614315.84446                  21768736.3484
        20.0004         21.0004
  21276917.2814   -1146747.66447   -839970.31246                  21276923.4574
        22.2504         25.2504
  22854023.1884   -4121274.27846  -3036734.03146                  22854029.1414
        17.2504         16.5004
  23431505.5554   -1710435.06946  -1258065.81046                  23431512.4614
        14.0004         13.7504
  21000055.3364    1076511.17648    848810.32347                  21000061.4184
        28.7504         28.0004
  23365555.0164    5786196.27246   4423982.87246                  23365561.6844
        12.2504         12.7504
 02  7  9 15 25 15.0000000  0  9G26G 6G10G15G17G18G29G23G30
  23175092.3984   -2781483.55746  -1993265.84846                  23175099.0204
        13.5004         12.0004
  20491041.6644     773673.29048    611562.69447                  20491047.6054
        28.0004         26.2504
  23118237.8524    5208448.56846   4058529.01446                  23118245.1214
        15.2504         15.5004
  21766742.7424   -2157707.36446  -1622452.50346                  21766749.5514
        19.5004         21.0004
  21276864.9304   -1147025.38747   -840186.71946                  21276871.0354
        22.2504         25.0004
  22848149.8204   -4152137.20746  -3060783.06146                  22848155.8914
        16.7504         16.2504
  23430491.7194   -1715760.89846  -1262215.80846                  23430498.4574
        13.7504         13.5004
  21005016.6954    1102582.00548    869125.24947                  21005022.6724
        28.2504         28.0004
  23379032.1484    5857020.87045   4479170.80446                  23379039.2544
        11.7504         12.7504
 02  7  9 15 25 30.0000000  0  9G26G 6G10G15G17G18G29G23G30
  23171961.1484   -2797938.81946  -2006088.11346                  23171967.4774
        13.5004         12.0004
  20495171.7344     795376.54648    628474.31147                  20495177.6994
        28.0004         26.5004
  23130653.2584    5273692.27946   4109368.24246                  23130660.6454
        15.5004         16.0004
  21764790.8674   -2167964.66846  -1630445.20446                  21764797.3594
        19.7504         21.0004
  21276846.8054   -1147120.82647   -840261.08946                  21276853.0744
        23.0004         25.0004
  22842313.3204   -4182807.95246  -3084682.30246                  22842319.8014
        16.5004         16.5004
  23429521.5084   -1720858.57446  -1266188.01746                  23429528.1524
        13.5004         14.0004
  21010025.5944    1128905.28147    889636.88747                  21010031.8754
        27.7504         28.2504
  23392539.2114    5928000.57145   4534479.60046                  23392545.8444
        11.7504         12.5004
 02  7  9 15 25 45.0000000  0  9G26G 6G10G15G17G18G29G23G30
  23168871.6334   -2814174.40946  -2018739.21246                  23168877.9734
        13.0004         12.0004
  20499346.0084     817311.34148    645566.34347                  20499351.8794
        28.5004         26.7504
  23143104.8444    5339125.40746   4160355.06646                  23143111.9144
        16.0004         16.5004
  21762873.7894   -2178040.24346  -1638296.28846                  21762880.3984
        19.7504         21.2504
  21276862.8754   -1147036.92947   -840195.71246                  21276868.9454
        23.0004         25.0004
  22836513.0634   -4213289.16746  -3108433.87746                  22836519.6254
        16.0004         16.2504
  23428594.3524   -1725730.75946  -1269984.52246                  23428600.5984
        14.0004         14.0004
  21015082.5554    1155477.92148    910342.82747                  21015088.8244
        28.2504         27.7504
  23406075.3134    5999132.10445   4589906.71846                  23406082.2424
        11.0004         12.0004
 02  7  9 15 26  0.0000000  0  9G26G 6G10G15G17G18G29G23G30
  23165824.0164   -2830189.39646  -2031218.40346                  23165830.3444
        12.5004         12.0004
  20503564.2974     839478.37148    662839.34747                  20503570.2274
        28.0004         26.2504
  23155592.6174    5404748.18146   4211489.67846                  23155599.8164
        15.7504         16.0004
  21760991.0784   -2187933.40347  -1646005.23346                  21760997.7704
        20.5004         21.5004
  21276913.0164   -1146773.06647   -839990.09946                  21276919.0744
        23.0004         25.2504
  22830749.1804   -4243580.11446  -3132037.19446                  22830755.2274
        16.2504         16.5004
  23427710.4614   -1730376.51946  -1273604.57846                  23427716.6254
        14.2504         14.0004
  21020186.4224    1182300.36248    931243.41947                  21020192.3524
        28.7504         27.7504
  23419639.6414    6070415.68645   4645452.31046                  23419647.3444
        10.5004         12.0004
 02  7  9 15 26 15.0000000  0  9G26G 6G10G15G17G18G29G23G30
  23162818.1644   -2845985.22645  -2043526.83046                  23162825.8204
        11.7504         12.0004
  20507826.1334     861875.86947    680291.92747                  20507832.1334
        27.7504         26.5004
  23168115.6024    5470558.37446   4262770.32546                  23168123.3524
        15.2504         15.2504
  21759143.0784   -2197646.07447  -1653573.54546                  21759149.5594
        21.0004         21.5004
  21276997.0474   -1146331.16447   -839645.76246                  21277003.1414
        23.5004         25.5004
  22825020.5944   -4273682.41446  -3155493.51146                  22825027.0044
        16.7504         16.7504
  23426869.2034   -1734797.51446  -1277049.51646                  23426874.9574
        13.7504         13.5004
  21025337.8594    1209370.58948    952337.09047                  21025343.8364
        28.2504         27.7504
  23433233.4384    6141849.10545   4701114.65845                  23433241.4344
        10.7504         11.5004
 02  7  9 15 26 30.0000000  0  9G26G 6G10G15G17G18G29G23G30
  23159853.5004   -2861566.19146  -2055667.85146                  23159860.6644
        12.2504         12.5004
  20512131.2974     884499.20847    697920.49247                  20512137.2624
        27.7504         26.0004
  23180673.5234    5536550.82446   4314192.98046                  23180681.4614
        14.7504         15.5004
  21757328.1174   -2207182.96147  -1661004.87546                  21757334.7624
        20.2504         21.5004
  21277114.1024   -1145715.95747   -839166.36646                  21277120.4534
        23.0004         25.5004
  22819327.6334   -4303600.44546  -3178806.23946                  22819333.5634
        16.5004         16.5004
  23426070.3134   -1738998.07846  -1280322.68346                  23426076.8634
        13.5004         13.2504
  21030535.6254    1236683.73748    973620.05747                  21030541.6374
        28.2504         27.5004
  23446854.5084    6213427.29145   4756889.80845                  23446862.3524
        11.0004         11.5004
 02  7  9 15 26 45.0000000  0  9G26G 6G10G15G17G18G29G23G30
  23156930.8204   -2876924.76246  -2067635.55446                  23156938.9454
        12.2504         12.7504
  20516480.7974     907355.76747    715730.78647                  20516486.8554
        27.2504         26.2504
  23193267.5394    5602732.43746   4365763.03046                  23193275.5234
        14.7504         15.5004
  21755548.0234   -2216536.76847  -1668293.54946                  21755554.6564
        21.0004         21.5004
  21277265.4304   -1144920.24047   -838546.32347                  21277271.8984
        23.0004         26.0004
  22813670.8524   -4333326.78846  -3201969.60346                  22813676.8164
        17.0004         16.7504
  23425313.9774   -1742970.74346  -1283418.26846                  23425320.4224
        13.5004         13.5004
  21035780.5084    1264246.85848    995097.80547                  21035786.5084
        28.7504         27.7504
  23460503.8914    6285156.99545   4812783.01546                  23460512.1214
        11.2504         12.2504
 02  7  9 15 27  0.0000000  0  9G26G 6G10G15G17G18G29G23G30
  23154049.2114   -2892069.11146  -2079436.31946                  23154056.5984
        12.5004         13.0004
  20520873.0394     930436.96347    733716.12547                  20520878.9574
        27.0004         26.0004
  23205896.0164    5669094.25846   4417473.51746                  23205903.9654
        15.0004         15.2504
  21753801.2584   -2225716.12347  -1675446.28846                  21753807.7034
        20.0004         21.7504
  21277449.6484   -1143952.68147   -837792.38047                  21277456.0824
        22.7504         25.7504
  22808048.8364   -4362869.79646  -3224990.10546                  22808054.9534
        17.2504         16.7504
  23424599.8364   -1746723.91446  -1286342.80646                  23424606.2934
        13.7504         14.0004
  21041071.3914    1292051.12648   1016763.47147                  21041077.3204
        28.7504         27.7504
  23474181.2504    6357029.25246   4868787.31546                  23474188.7304
        12.0004         12.7504
 02  7  9 15 27 15.0000000  0  9G26G 6G10G15G17G18G29G23G30
  23151208.8984   -2906993.00046  -2091065.31646                  23151215.8754
        13.2504         12.7504
  20525309.1644     953748.74047    751881.13547                  20525315.0944
        27.2504         25.7504
  23218559.6094    5735641.82346   4469328.73546                  23218567.7704
        15.0004         16.0004
  21752088.8834   -2234715.07547  -1682458.45046                  21752095.7034
        20.2504         21.7504
  21277667.3204   -1142807.43647   -836899.97546                  21277673.7304
        22.5004         25.5004
  22802463.3834   -4392223.41046  -3247863.03146                  22802469.5354
        18.0004         16.7504
  23423928.3204   -1750251.46446  -1289091.54646                  23423935.5554
        14.0004         14.0004
  21046409.3834    1320102.27748   1038621.50547                  21046415.3954
        28.5004         28.0004
  23487886.3134    6429049.59146   4924907.00446                  23487894.2854
        12.5004         13.5004
 02  7  9 15 27 30.0000000  0  9G26G 6G10G15G17G18G29G23G30
  23148409.4304   -2921700.93046  -2102526.02646                  23148416.9104
        12.5004         12.7504
  20529788.2344     977286.20947    770222.00547                  20529794.1764
        27.7504         26.2504
  23231257.7894    5802369.72446   4521324.46646                  23231265.4924
        15.0004         16.0004
  21750409.7584   -2243538.69247  -1689333.98546                  21750416.2974
        20.5004         21.5004
  21277918.3524   -1141489.49147   -835873.00746                  21277924.5744
        22.7504         25.2504
  22796912.5634   -4421392.27446  -3270591.99146                  22796918.4574
        18.2504         17.0004
  23423299.4774   -1753558.02846  -1291668.09146                  23423306.9104
        14.2504         13.7504
  21051793.5084    1348395.15848   1060667.90047                  21051799.6374
        28.2504         28.2504
  23501618.8444    6501212.57146   4981137.84346                  23501626.5354
        12.5004         13.0004
 02  7  9 15 27 45.0000000  0  9G26G 6G10G15G17G18G29G23G30
  23145651.8524   -2936193.75846  -2113819.12646                  23145659.1684
        12.0004         12.7504
  20534309.8524    1001048.26247    788737.88147                  20534315.8164
        27.7504         26.5004
  23243989.9844    5869276.51346   4573459.60346                  23243997.5474
        15.2504         16.0004
  21748763.7584   -2252188.11047  -1696073.78546                  21748770.3324
        20.2504         21.5004
  21278201.5864   -1140000.04247   -834712.39646                  21278207.8674
        22.7504         25.2504
  22791397.1414   -4450377.27746  -3293177.70046                  22791403.2464
        18.7504         16.7504
  23422711.9614   -1756644.48746  -1294073.12646                  23422719.3594
        14.2504         14.0004
  21057223.0704    1376928.46748   1082901.63347                  21057229.1764
        28.2504         28.0004
  23515377.7274    6573516.80546   5037478.72446                  23515384.9384
        12.2504         13.0004
 02  7  9 15 28  0.0000000  0  9G26G 6G10G15G17G18G29G23G30
  23142934.4064   -2950473.43546  -2124946.13946                  23142941.3134
        12.5004         12.5004
  20538873.9384    1025032.58848    807426.94947                  20538879.7734
        28.0004         26.2504
  23256755.0314    5936359.32046   4625731.88246                  23256762.5594
        15.5004         15.7504
  21747150.4694   -2260665.70147  -1702679.69046                  21747157.0554
        20.5004         21.5004
  21278517.1644   -1138341.51547   -833420.04146                  21278523.3634
        22.2504         25.2504
  22785915.8754   -4479180.67746  -3315621.86946                  22785921.9804
        18.0004         17.2504
  23422165.6334   -1759512.98446  -1296308.30746                  23422172.6914
        13.5004         13.7504
  21062698.1884    1405699.64448   1105320.72047                  21062704.3164
        28.5004         28.0004
  23529163.2664    6645959.45046   5093927.47646                  23529170.5474
        12.2504         12.7504
 02  7  9 15 28 15.0000000  0  9G26G 6G10G15G17G18G29G23G30
  23140257.9774   -2964537.74546  -2135905.32746                  23140265.0004
        12.5004         12.7504
  20543480.7974    1049241.16847    826290.77047                  20543486.7154
        27.7504         26.2504
  23269554.2584    6003619.73146   4678142.56446                  23269561.9494
        15.7504         15.2504
  21745570.2734   -2268969.59947  -1709150.24846                  21745576.9534
        20.5004         21.5004
  21278865.2814   -1136512.22347   -831994.61246                  21278871.5864
        22.7504         25.2504
  22780469.2344   -4507800.29246  -3337922.83946                  22780475.2234
        18.0004         16.7504
  23421662.0784   -1762161.43546  -1298372.03746                  23421667.7974
        13.2504         13.2504
  21068218.7814    1434710.41148   1127926.50547                  21068224.7934
        28.7504         28.0004
  23542975.2584    6718542.00746   5150485.24046                  23542982.4924
        13.0004         13.2504
 02  7  9 15 28 30.0000000  0  9G26G 6G10G15G17G18G29G23G30
  23137623.2274   -2978384.99746  -2146695.38746                  23137630.2734
        12.2504         12.2504
  20548130.4844    1073675.45747    845330.45747                  20548136.4494
        27.5004         26.0004
  23282387.4844    6071058.82046   4730692.46646                  23282395.0004
        16.2504         15.0004
  21744023.3984   -2277098.48447  -1715484.44246                  21744029.6454
        21.0004         21.7504
  21279246.5784   -1134510.56147   -830434.87646                  21279252.7894
        22.7504         25.5004
  22775058.6724   -4536234.51846  -3360079.35446                  22775065.2814
        17.2504         16.7504
  23421200.2974   -1764588.25946  -1300263.06746                  23421205.9104
        13.2504         13.0004
  21073785.0944    1463961.95648   1150719.90647                  21073791.0474
        29.0004         28.0004
  23556814.0634    6791265.43946   5207152.79046                  23556820.2734
        12.7504         12.7504
 02  7  9 15 28 45.0000000  0  9G26G 6G10G15G17G18G29G23G30
  23135028.4844   -2992018.70846  -2157319.03346                  23135035.3444
        12.5004         12.5004
  20552822.3204    1098331.56247    864543.00247                  20552828.3204
        27.0004         26.0004
  23295253.7424    6138672.22246   4783378.21046                  23295261.0354
        16.2504         15.0004
  21742509.1954   -2285056.31647  -1721685.34646                  21742515.5234
        20.5004         21.5004
  21279659.1174   -1132340.74747   -828744.11146                  21279665.1994
        23.2504         25.2504
  22769682.4454   -4564487.05046  -3382094.28046                  22769688.4344
        17.0004         17.0004
  23420780.1644   -1766797.01546  -1301984.16746                  23420786.4104
        13.7504         13.2504
  21079396.5004    1493450.15048   1173697.71547                  21079402.4304
        28.2504         27.7504
  23570678.8594    6864125.44846   5263926.76546                  23570686.0944
        12.5004         12.2504
 02  7  9 15 29  0.0000000  0  9G26G 6G10G15G17G18G29G23G30
  23132475.5234   -3005437.28246  -2167775.05846                  23132482.4414
        12.7504         12.7504
  20557556.6644    1123210.77447    883929.38647                  20557562.6644
        27.0004         26.0004
  23308153.6094    6206460.91146   4836200.53246                  23308160.6804
        16.5004         15.2504
  21741027.6174   -2292841.88847  -1727752.00946                  21741034.3094
        21.0004         21.7504
  21280104.4614   -1130001.55447   -826921.36146                  21280110.4734
        23.2504         25.2504
  22764341.0784   -4592556.48346  -3403966.54246                  22764347.4654
        17.0004         17.0004
  23420401.2814   -1768786.32446  -1303534.26746                  23420407.7034
        14.0004         13.2504
  21085053.1724    1523175.97848   1196860.69447                  21085059.1604
        28.5004         27.7504
  23584569.8754    6937122.81245   5320807.76845                  23584577.5084
        11.7504         11.7504
 02  7  9 15 29 15.0000000  0  9G26G 6G10G15G17G18G29G23G30
  23129962.3054   -3018642.77646  -2178065.05446                  23129969.3284
        13.2504         12.7504
  20562333.1174    1148310.74647    903487.79647                  20562339.0594
        27.2504         26.0004
  23321086.3674    6274421.97846   4889157.18946                  23321093.4614
        15.7504         15.5004
  21739578.3594   -2300457.70747  -1733686.40446                  21739584.6884
        21.2504         21.7504
  21280581.4924   -1127495.40147   -824968.51046                  21280587.5274
        23.2504         25.2504
  22759033.6644   -4620444.99646  -3425697.83146                  22759039.8874
        17.7504         17.5004
  23420064.0004   -1770558.35046  -1304915.06546                  23420070.1994
        13.7504         14.0004
  21090754.6094    1553136.81048   1220206.79047                  21090760.6214
        28.7504         28.2504
  23598486.2974    7010254.80645   5377793.68245                  23598493.3914
        11.2504         11.7504
 02  7  9 15 29 30.0000000  0  9G26G 6G10G15G17G18G29G23G30
  23127489.6254   -3031637.06646  -2188190.47146                  23127496.3164
        14.0004         12.5004
  20567151.1884    1173629.30547    923216.53247                  20567157.0594
        27.7504         26.0004
  23334051.2664    6342552.83346   4942246.14246                  23334058.7934
        15.2504         15.0004
  21738160.9924   -2307905.97947  -1739490.25246                  21738167.3444
        21.5004         21.7504
  21281089.4064   -1124824.54847   -822887.32446                  21281095.4884
        23.0004         25.2504
  22753760.6644   -4648154.64546  -3447289.72046                  22753766.5944
        18.0004         17.2504
  23419768.0234   -1772115.04846  -1306128.06446                  23419775.0004
        13.2504         14.0004
  21096500.1094    1583330.22948   1243734.12147                  21096506.2624
        28.2504         27.7504
  23612427.8834    7083518.67445   5434882.31945                  23612436.2774
        11.0004         11.7504
 02  7  9 15 29 45.0000000  0  9G26G 6G10G15G17G18G29G23G30
  23125057.0634   -3044419.28046  -2198150.62046                  23125063.3094
        14.0004         12.7504
  20572010.7974    1199167.02547    943116.04447                  20572016.7854
        27.2504         26.0004
  23347047.9924    6410853.57046   4995467.45346                  23347055.4844
        15.2504         15.0004
  21736775.7114   -2315186.20547  -1745163.14646                  21736782.2974
        21.0004         21.7504
  21281629.0864   -1121988.66547   -820677.54346                  21281635.0744
        23.0004         25.2504
  22748522.1484   -4675684.79046  -3468741.75746                  22748528.1134
        18.2504         17.5004
  23419512.6884   -1773455.63346  -1307172.67246                  23419520.1094
        13.2504         13.7504
  21102290.1414    1613756.51148   1267442.90147                  21102296.2234
        28.5004         28.0004
  23626394.5944    7156914.68845   5492073.96845                  23626401.4884
        11.2504         11.2504
 02  7  9 15 30  0.0000000  0  9G26G 6G10G15G17G18G29G23G30
  23122665.5004   -3056988.82246  -2207945.06446                  23122671.9694
        13.7504         13.0004
  20576912.2504    1224924.21047    963186.56447                  20576918.2854
        27.5004         26.0004
  23360077.4454    6479324.02046   5048821.00246                  23360085.2194
        14.7504         15.0004
  21735422.2664   -2322298.12147  -1750704.89646                  21735428.7234
        21.7504         22.0004
  21282200.3364   -1118987.36947   -818338.87746                  21282206.3714
        23.0004         25.0004
  22743317.3834   -4703034.86446  -3490053.48346                  22743323.9924
        17.5004         17.7504
  23419299.1334   -1774579.67846  -1308048.55946                  23419306.0864
        14.0004         13.7504
  21108124.4924    1644415.77248   1291333.22847                  21108130.4574
        28.5004         28.0004
  23640387.2814    7230442.56945   5549368.35545                  23640394.5044
        11.2504         11.7504
 02  7  9 15 30 15.0000000  0  9G26G 6G10G15G17G18G29G23G30
  23120313.3754   -3069349.04846  -2217576.40746                  23120319.9964
        13.2504         13.2504
  20581854.6334    1250897.23947    983425.27547                  20581860.5514
        27.7504         26.2504
  23373138.6564    6547960.16246   5102303.67246                  23373147.0044
        14.7504         15.0004
  21734100.3364   -2329245.46547  -1756118.40046                  21734106.6644
        21.7504         22.2504
  21282802.2894   -1115824.48347   -815874.29046                  21282808.3364
        23.0004         25.2504
  22738146.7664   -4730208.37246  -3511227.61946                  22738153.7774
        17.0004         18.0004
  23419125.7814   -1775490.79646  -1308758.50246                  23419132.1334
        14.0004         13.7504
  21114002.2344    1675304.16648   1315402.09747                  21114008.1884
        28.7504         27.7504
  23654402.9224    7304098.28745   5606762.35445                  23654410.8364
        11.5004         11.2504
 02  7  9 15 30 30.0000000  0  9G26G 6G10G15G17G18G29G23G30
  23118001.0944   -3081497.18646  -2227042.45246                  23118009.0204
        12.5004         13.2504
  20586838.6254    1277088.49847   1003834.04547                  20586844.5784
        27.0004         26.0004
  23386231.9224    6616764.01646   5155917.01146                  23386238.9574
        15.7504         15.5004
  21732810.0314   -2336025.86647  -1761401.82446                  21732816.3134
        21.5004         22.2504
  21283435.4924   -1112497.74247   -813282.01746                  21283441.4924
        23.0004         25.2504
  22733009.7034   -4757202.61446  -3532262.06946                  22733016.9844
        16.7504         18.0004
  23418993.1334   -1776186.16846  -1309300.34146                  23418998.8874
        13.5004         13.7504
  21119924.2584    1706423.79348   1339651.15447                  21119930.2114
        28.7504         27.7504
  23668444.3204    7377883.83245   5664257.52845                  23668450.8244
        11.0004         11.0004
 02  7  9 15 30 45.0000000  0  9G26G 6G10G15G17G18G29G23G30
  23115730.2194   -3093433.64046  -2236343.57446                  23115738.0274
        13.5004         14.0004
  20591864.1644    1303497.24047   1024412.27547                  20591870.1524
        26.7504         26.0004
  23399356.5234    6685734.41746   5209660.16246                  23399363.9454
        15.2504         15.2504
  21731551.3594   -2342640.18847  -1766555.83546                  21731557.9694
        21.7504         22.2504
  21284099.3754   -1109008.03647   -810562.76446                  21284105.4574
        22.7504         25.2504
  22727906.7274   -4784018.13846  -3553157.25446                  22727913.8674
        17.2504         17.7504
  23418902.2114   -1776666.41046  -1309674.55046                  23418908.6804
        13.2504         13.5004
  21125889.9384    1737773.68148   1364079.63247                  21125895.9964
        28.5004         27.7504
  23682508.7034    7451797.94745   5721852.89145                  23682516.7464
        10.0004         10.0004
 02  7  9 15 31  0.0000000  0  9G26G 6G10G15G17G18G29G23G30
  23113498.7974   -3105159.00946  -2245480.20746                  23113505.0204
        14.2504         13.7504
  20596930.6954    1330122.63547   1045159.32347                  20596936.6954
        26.5004         25.7504
  23412512.8524    6754870.06446   5263532.06646                  23412520.5314
        15.5004         15.0004
  21730324.2424   -2349089.32647  -1771581.13546                  21730330.8404
        21.2504         22.2504
  21284794.0864   -1105356.27647   -807717.23946                  21284800.1334
        22.7504         25.2504
  22722837.8284   -4810655.85846  -3573913.89146                  22722844.6134
        17.7504         18.0004
  23418851.1174   -1776932.15146  -1309881.62746                  23418857.7384
        13.5004         14.0004
  21131899.1564    1769352.70548   1388686.64747                  21131905.1094
        29.0004         27.7504
  23696598.9144    7525839.43345   5779547.47445                  23696605.9844
        10.0004         10.2504
 02  7  9 15 31 15.0000000  0  9G26G 6G10G15G17G18G29G23G30
  23111306.9614   -3116678.74146  -2254456.59146                  23111313.4064
        14.5004         13.5004
  20602037.6564    1356958.97147   1066070.74247                  20602043.7154
        27.0004         25.7504
  23425699.3364    6824164.78946   5317527.92346                  23425706.9574
        15.5004         15.5004
  21729127.2814   -2355379.13747  -1776482.28346                  21729133.7154
        21.2504         22.0004
  21285518.9454   -1101548.20347   -804749.91146                  21285525.0984
        22.2504         25.2504
  22717801.2734   -4837121.17946  -3594536.20746                  22717807.5904
        17.5004         18.2504
  23418840.0474   -1776988.94546  -1309925.88646                  23418846.9654
        13.7504         14.5004
  21137950.9614    1801154.83948   1413467.52447                  21137956.9144
        28.7504         27.7504
  23710711.6414    7600002.09645   5837336.48345                  23710719.4144
        10.0004         10.2504
 02  7  9 15 31 30.0000000  0  9G26G 6G10G15G17G18G29G23G30
  23109154.7114   -3127989.76246  -2263270.37346                  23109160.7344
        14.5004         13.2504
  20607185.1254    1384008.93147   1087148.61847                  20607191.0904
        27.0004         26.0004
  23438916.1804    6893620.90646   5371649.53746                  23438923.6954
        15.2504         15.0004
  21727961.0004   -2361506.98947  -1781257.22446                  21727967.4454
        21.0004         22.2504
  21286273.6564   -1097581.27547   -801658.79646                  21286279.9144
        22.0004         25.0004
  22712798.7814   -4863411.17646  -3615021.90246                  22712805.2034
        18.2504         18.2504
  23418870.2194   -1776833.96946  -1309805.09146                  23418876.5004
        13.5004         14.2504
  21144045.5554    1833182.52648   1438424.14847                  21144051.6024
        28.7504         27.7504
  23724847.9924    7674288.11245   5895221.64045                  23724854.5084
         9.5004         10.5004
 02  7  9 15 31 45.0000000  0  9G26G 6G10G15G17G18G29G23G30
  23107042.1414   -3139089.93746  -2271919.86246                  23107047.9414
        14.0004         12.7504
  20612373.4614    1411274.38747   1108394.41847                  20612379.4384
        27.5004         26.0004
  23452164.0554    6963239.85946   5425898.02746                  23452170.7934
        14.7504         14.7504
  21726826.0944   -2367471.09347  -1785904.57046                  21726832.3054
        21.2504         22.5004
  21287059.2344   -1093453.82047   -798442.59846                  21287065.5634
        22.2504         25.2504
  22707829.3754   -4889523.90846  -3635369.47046                  22707835.4104
        18.0004         18.0004
  23418940.0164   -1776465.21846  -1309517.73346                  23418946.8594
        13.5004         14.0004
  21150183.3594    1865437.39048   1463557.80547                  21150189.3834
        28.5004         27.7504
  23739007.6174    7748698.98845   5953204.07245                  23739014.4614
         9.2504         10.0004
 02  7  9 15 32  0.0010000  0  9G26G 6G10G15G17G18G29G23G30
  23104968.6304   -3149985.14746  -2280409.62346                  23104974.5834
        13.5004         12.7504
  20617602.3964    1438751.79247   1129805.37947                  20617608.3134
        27.7504         26.0004
  23465443.1384    7033020.45446   5480272.48746                  23465449.6774
        14.5004         14.7504
  21725721.3564   -2373277.27747  -1790428.86046                  21725727.6854
        21.0004         22.0004
  21287874.4974   -1089170.85347   -795105.22346                  21287880.6494
        23.0004         25.0004
  22702893.3254   -4915466.29046  -3655584.29546                  22702899.3134
        18.0004         18.2504
  23419049.9034   -1775887.72346  -1309067.73846                  23419056.3134
        13.5004         14.2504
  21156363.8564    1897915.93048   1488865.75547                  21156369.8334
        28.7504         27.5004
  23753191.0754    7823233.83945   6011283.10045                  23753198.8844
         9.7504         10.5004
 02  7  9 15 32 15.0010000  0  9G26G 6G10G15G17G18G29G23G30
  23102935.0444   -3160671.86346  -2288736.90146                  23102941.7124
        13.5004         12.7504
  20622871.1774    1466439.07347   1151379.85847                  20622877.1774
        27.5004         26.0004
  23478751.0994    7102954.57846   5534766.59046                  23478757.7784
        14.2504         14.7504
  21724646.7864   -2378923.19347  -1794828.27046                  21724653.3604
        20.7504         22.0004
  21288718.9974   -1084731.61647   -791646.08746                  21288724.9154
        23.2504         25.2504
  22697989.6384   -4941233.16546  -3675662.35046                  22697995.7084
        18.5004         18.5004
  23419199.7244   -1775099.91046  -1308453.85246                  23419205.9464
        13.5004         14.0004
  21162586.3254    1930615.19448   1514345.68947                  21162592.2904
        28.7504         27.5004
  23767396.7944    7897883.86545   6069451.88345                  23767404.4384
        10.2504         10.7504
 02  7  9 15 32 30.0010000  0  9G26G 6G10G15G17G18G29G23G30
  23100940.7394   -3171152.72946  -2296903.80146                  23100947.6224
        13.2504         13.0004
  20628179.6694    1494335.89747   1173117.63847                  20628185.7284
        26.5004         26.0004
  23492088.4974    7173044.24746   5589381.88746                  23492095.9784
        13.7504         14.5004
  21723602.2864   -2384411.40147  -1799104.78646                  21723609.1574
        20.7504         22.2504
  21289593.2944   -1080137.91047   -788066.57346                  21289599.2944
        23.5004         25.2504
  22693119.3174   -4966828.28346  -3695606.57746                  22693125.1424
        19.5004         18.5004
  23419389.3254   -1774103.67546  -1307677.54846                  23419396.0404
        13.2504         14.2504
  21168850.8884    1963534.93548   1539997.42847                  21168857.0284
        28.2504         27.5004
  23781624.9584    7972651.43745   6127712.24145                  23781633.6694
        11.0004         10.7504
 02  7  9 15 32 45.0010000  0  9G26G 6G10G15G17G18G29G23G30
  23098986.1854   -3181424.73746  -2304907.94746                  23098993.8994
        13.2504         13.0004
  20633528.7474    1522445.04547   1195020.85847                  20633534.7124
        26.7504         25.7504
  23505456.6854    7243291.93946   5644120.31946                  23505464.0834
        13.2504         14.2504
  21722588.2714   -2389739.17547  -1803256.30146                  21722595.2354
        20.5004         22.2504
  21290497.1694   -1075387.24547   -784364.75746                  21290503.1814
        23.0004         25.2504
  22688282.1224   -4992248.57146  -3715414.56946                  22688288.1694
        19.7504         18.7504
  23419619.1144   -1772895.95046  -1306736.45946                  23419625.6884
        13.5004         14.2504
  21175157.6694    1996677.69348   1565822.94247                  21175163.7044
        28.0004         27.5004
  23795875.0914    8047538.93945   6186066.07645                  23795883.0524
        10.5004         11.5004
 02  7  9 15 33  0.0010000  0  9G26G 6G10G15G17G18G29G23G30
  23097070.3334   -3191493.19246  -2312753.49146                  23097077.4274
        14.0004         13.2504
  20638916.7864    1550760.79847   1217085.06847                  20638922.7394
        26.5004         25.7504
  23518853.1924    7313691.49146   5698977.07346                  23518861.3294
        13.2504         14.2504
  21721604.0284   -2394912.31647  -1807287.30646                  21721611.0634
        20.2504         22.2504
  21291429.9274   -1070485.33447   -780545.08246                  21291435.9384
        23.0004         25.0004
  22683476.6854   -5017499.59446  -3735090.65646                  22683483.1304
        19.5004         19.0004
  23419888.1464   -1771482.36346  -1305634.94146                  23419894.2984
        13.7504         14.2504
  21181505.9034    2030037.50548   1591817.59347                  21181511.7744
        28.2504         27.5004
  23810147.8254    8122540.14645   6244508.47645                  23810155.9384
        11.0004         11.5004
 02  7  9 15 33 15.0010000  0  9G26G 6G10G15G17G18G29G23G30
  23095193.2634   -3201356.27346  -2320438.99246                  23095199.7904
        14.5004         13.7504
  20644344.6534    1579284.77847   1239311.54746                  20644350.7004
        26.5004         25.5004
  23532278.7944    7384244.01446   5753953.02746                  23532286.5794
        13.5004         14.2504
  21720649.3884   -2399929.37447  -1811196.70546                  21720656.4114
        20.7504         22.2504
  21292391.6614   -1065430.67647   -776606.39146                  21292397.8024
        22.7504         25.2504
  22678704.2314   -5042579.67246  -3754633.54146                  22678710.3724
        19.2504         18.7504
  23420196.6464   -1769861.20246  -1304371.68346                  23420202.8924
        14.2504         14.2504
  21187895.5914    2063615.71748   1617982.42247                  21187901.5564
        28.2504         27.5004
  23824442.4744    8197656.28345   6303040.46446                  23824449.7674
        11.2504         12.0004
 02  7  9 15 33 30.0010000  0  9G26G 6G10G15G17G18G29G23G30
  23093355.4114   -3211015.16946  -2327965.37746                  23093362.0094
        14.5004         13.7504
  20649812.1144    1608015.45747   1261699.07446                  20649818.2674
        26.5004         25.2504
  23545733.3884    7454947.46446   5809046.59746                  23545740.0794
        13.7504         14.2504
  21719724.0994   -2404791.99347  -1814985.74846                  21719730.9704
        20.5004         22.2504
  21293382.4664   -1060225.03247   -772550.04646                  21293388.6884
        22.7504         25.5004
  22673963.5214   -5067490.22946  -3774044.33346                  22673969.4974
        18.7504         19.0004
  23420544.5284   -1768033.75446  -1302947.67846                  23420551.1034
        14.0004         14.2504
  21194326.6384    2097410.50948   1644316.02047                  21194332.6494
        28.2504         27.5004
  23838758.5604    8272885.33345   6361660.44146                  23838766.6854
        11.7504         12.2504
 02  7  9 15 33 45.0010000  0  9G26G 6G10G15G17G18G29G23G30
  23091555.6854   -3220469.65146  -2335332.47746                  23091562.4584
        14.0004         14.2504
  20655318.6464    1636952.92147   1284247.73646                  20655324.5634
        27.2504         25.5004
  23559216.4744    7525801.55146   5864257.53746                  23559223.1064
        13.7504         14.0004
  21718828.1924   -2409500.14747  -1818654.43446                  21718834.5794
        21.0004         22.0004
  21294401.6384   -1054868.22047   -768375.90946                  21294407.7904
        23.0004         25.5004
  22669255.5054   -5092230.90646  -3793322.75946                  22669261.6344
        18.2504         18.7504
  23420931.4894   -1765999.78246  -1301362.75046                  23420937.6534
        13.7504         14.7504
  21200798.6534    2131421.71948   1670818.25747                  21200804.7354
        28.2504         27.5004
  23853095.2634    8348226.90745   6420368.07946                  23853103.3174
        11.0004         12.0004
 02  7  9 15 34  0.0010000  0  9G26G 6G10G15G17G18G29G23G30
  23089796.0364   -3229718.41746  -2342539.27246                  23089803.2474
        14.0004         13.7504
  20660865.0054    1666098.02847   1306958.19547                  20660870.8414
        27.0004         25.7504
  23572728.2784    7596806.72346   5919586.23446                  23572734.7244
        13.5004         13.7504
  21717961.7314   -2414052.94747  -1822202.06046                  21717967.7084
        21.2504         22.0004
  21295450.1924   -1049359.61847   -764083.49046                  21295456.2984
        23.0004         25.5004
  22664579.8804   -5116800.64946  -3812467.97946                  22664586.1034
        18.7504         18.5004
  23421357.8174   -1763758.19146  -1299616.05046                  23421364.0284
        14.2504         14.5004
  21207312.2944    2165649.89748   1697489.55247                  21207318.2824
        28.5004         27.5004
  23867453.4114    8423681.41845   6479163.72345                  23867461.5134
        10.7504         11.7504
 02  7  9 15 34 15.0010000  0  9G26G 6G10G15G17G18G29G23G30
  23088074.3414   -3238766.73846  -2349589.87946                  23088081.9854
        14.2504         14.2504
  20666449.4114    1695445.07547   1329826.01646                  20666455.3884
        26.7504         25.5004
  23586267.6694    7667956.99946   5975027.97646                  23586275.0674
        13.7504         13.7504
  21717123.9504   -2418456.21847  -1825633.18446                  21717130.0914
        21.7504         22.2504
  21296526.2714   -1043704.94047   -759677.25046                  21296532.4234
        23.5004         25.5004
  22659935.7004   -5141204.87846  -3831484.23446                  22659942.0754
        18.7504         18.7504
  23421822.9894   -1761314.56646  -1297711.91546                  23421828.9424
        13.5004         14.2504
  21213865.6144    2200089.12648   1724325.31547                  21213871.6144
        28.5004         27.5004
  23881832.2084    8499242.87345   6538042.72545                  23881839.3964
         9.7504         10.7504
 02  7  9 15 34 30.0010000  0  9G26G 6G10G15G17G18G29G23G30
  23086390.3024   -3247612.98446  -2356483.05346                  23086398.1104
        14.0004         14.0004
  20672072.7554    1724995.54347   1352852.33946                  20672078.6964
        26.5004         25.5004
  23599834.5914    7739253.40546   6030583.60146                  23599841.8844
        13.2504         13.2504
  21716314.7714   -2422708.49647  -1828946.64246                  21716321.0054
        22.0004         22.2504
  21297630.2314   -1037902.83847   -755156.13147                  21297636.5834
        23.2504         25.7504
  22655323.8494   -5165442.09346  -3850370.35046                  22655330.2944
        18.5004         18.2504
  23422326.7784   -1758667.13146  -1295648.95746                  23422332.8964
        13.7504         14.2504
  21220459.4894    2234740.66148   1751326.50047                  21220465.5604
        28.0004         27.5004
  23896231.9504    8574912.29345   6597005.83545                  23896238.8104
         9.5004         10.7504
 02  7  9 15 34 45.0010000  0  9G26G 6G10G15G17G18G29G23G30
  23084745.8964   -3256255.47446  -2363217.44146                  23084753.5874
        14.2504         14.0004
  20677734.9034    1754750.82447   1376038.26946                  20677740.9974
        26.5004         25.5004
  23613429.7634    7810696.80946   6086253.74246                  23613436.5014
        12.5004         13.2504
  21715534.6854   -2426808.45447  -1832141.40646                  21715541.1654
        21.2504         22.5004
  21298762.5754   -1031951.89447   -750519.03247                  21298768.9854
        23.5004         25.7504
  22650743.3334   -5189510.79146  -3869125.15546                  22650749.4274
        18.5004         18.2504
  23422869.5524   -1755814.47346  -1293426.09146                  23422875.8804
        13.7504         14.5004
  21227094.1924    2269605.63248   1778494.00047                  21227100.3334
        28.0004         27.7504
  23910651.0444    8650690.58945   6656053.79845                  23910658.5484
         9.0004         10.5004
 02  7  9 15 35  0.0010000  0  9G26G 6G10G15G17G18G29G23G30
  23083140.8644   -3264691.25046  -2369790.74646                  23083147.6854
        14.5004         13.7504
  20683436.6384    1784713.43047   1399385.73747                  20683442.6384
        26.2504         25.7504
  23627053.5054    7882289.30246   6142040.07446                  23627061.3964
        12.2504         13.5004
  21714783.8334   -2430753.69247  -1835215.60546                  21714790.2204
        21.7504         22.5004
  21299924.0134   -1025849.83347   -745764.18147                  21299930.3644
        23.5004         25.7504
  22646195.9354   -5213408.28346  -3887746.55746                  22646201.8414
        18.5004         18.2504
  23423451.9584   -1752753.88446  -1291041.20746                  23423458.5914
        14.0004         14.5004
  21233769.7714    2304686.26948   1805829.55747                  21233775.9114
        28.0004         27.7504
  23925093.0524    8726579.77045   6715188.13645                  23925101.4704
         8.7504         10.5004
 02  7  9 15 35 15.0010000  0  9G26G 6G10G15G17G18G29G23G30
  23081573.6224   -3272925.81646  -2376207.26846                  23081580.3604
        14.2504         14.0004
  20689176.5914    1814877.68947   1422890.34346                  20689182.6384
        26.0004         25.5004
  23640704.2474    7954024.91946   6197937.91846                  23640711.7394
        12.5004         13.5004
  21714061.4584   -2434549.91247  -1838173.69446                  21714067.8214
        21.7504         22.5004
  21301112.6224   -1019602.42747   -740896.07347                  21301119.0214
        23.2504         26.0004
  22641680.0604   -5237140.01446  -3906238.78546                  22641686.1184
        18.5004         18.7504
  23424072.9584   -1749490.82746  -1288498.56546                  23424079.1814
        14.7504         14.5004
  21240485.4114    2339976.63747   1833328.52847                  21240491.5054
        27.7504         27.5004
  23939553.7944    8802573.89345   6774404.26145                  23939561.4624
         8.5004          9.7504
 02  7  9 15 35 30.0010000  0  9G26G 6G10G15G17G18G29G23G30
  23080044.1534   -3280962.92246  -2382469.92446                  23080050.8924
        15.0004         14.2504
  20694954.3174    1845239.57847   1446548.95347                  20694960.4354
        26.5004         25.7504
  23654381.6224    8025899.21446   6253943.82146                  23654388.7164
        12.2504         13.0004
  21713366.4894   -2438201.19747  -1841018.85846                  21713373.2394
        21.2504         22.5004
  21302328.2004   -1013213.71147   -735917.85447                  21302334.5874
        22.7504         25.7504
  22637194.7314   -5260709.95146  -3924604.94646                  22637200.4274
        18.5004         18.0004
  23424731.8104   -1746029.13946  -1285801.13346                  23424738.2314
        15.0004         15.2504
  21247239.9814    2375472.42648   1860987.57247                  21247245.9934
        28.2504         27.5004
  23954034.0994    8878668.41145   6833698.62245                  23954042.1774
         9.0004          9.7504
 02  7  9 15 35 45.0010000  0  9G26G 6G10G15G17G18G29G23G30
  23078553.3254   -3288797.34746  -2388574.64146                  23078560.0174
        14.7504         14.2504
  20700770.5834    1875803.92547   1470365.31146                  20700776.5714
        27.0004         25.5004
  23668086.1924    8097916.60246   6310061.21946                  23668093.5794
        12.5004         13.2504
  21712700.0444   -2441702.82447  -1843747.39646                  21712707.0914
        21.2504         22.7504
  21303571.8254   -1006679.00747   -730825.87847                  21303578.0834
        22.7504         25.7504
  22632741.4894   -5284113.01546  -3942841.08546                  22632747.5834
        18.7504         18.0004
  23425429.2554   -1742363.68146  -1282944.92346                  23425435.7594
        15.0004         15.2504
  21254034.6614    2411178.25048   1888810.28747                  21254040.6494
        28.7504         27.2504
  23968535.1064    8954867.73745   6893074.63245                  23968543.1854
         9.2504         10.2504
 02  7  9 15 36  0.0010000  0  9G26G 6G10G15G17G18G29G23G30
  23077100.6924   -3296428.80646  -2394521.21446                  23077106.7044
        14.5004         13.7504
  20706625.2864    1906570.75747   1494339.45447                  20706631.2864
        26.7504         26.0004
  23681818.0674    8170076.62946   6366289.80146                  23681824.9744
        12.5004         13.2504
  21712062.4194   -2445054.81547  -1846359.32846                  21712069.6064
        20.5004         22.5004
  21304843.1304    -999998.26147   -725620.10246                  21304849.2244
        22.5004         25.2504
  22628319.6924   -5307348.97046  -3960947.00746                  22628325.8564
        18.7504         18.0004
  23426165.4894   -1738494.40546  -1279929.89946                  23426171.8174
        14.7504         15.2504
  21260869.1304    2447093.83148   1916796.44747                  21260875.1304
        28.0004         27.2504
  23983054.9744    9031171.43745   6952531.99145                  23983062.5604
         9.5004         10.0004
 02  7  9 15 36 15.0010000  0  9G26G 6G10G15G17G18G29G23G22
  23075686.8104   -3303860.27146  -2400311.94846                  23075693.1964
        14.0004         13.7504
  20712517.8964    1937536.67447   1518468.73447                  20712524.0244
        26.7504         26.0004
  23695576.0834    8242375.53446   6422626.56546                  23695582.8104
        13.0004         13.7504
  21711452.1924   -2448260.67047  -1848857.39446                  21711459.0244
        20.5004         22.2504
  21306141.3964    -993175.06647   -720303.33446                  21306147.4894
        22.2504         25.2504
  22623929.3644   -5330420.95546  -3978925.15846                  22623935.5874
        19.2504         18.5004
  23426940.0674   -1734424.51546  -1276758.52846                  23426946.3134
        15.0004         15.0004
  21267742.7944    2483215.51648   1944943.20747                  21267748.8174
        28.0004         27.2504
  23630658.7084        439.09255
        11.0004
 02  7  9 15 36 30.0010000  0  9G26G 6G10G15G17G18G29G23G22
  23074310.0214   -3311095.27846  -2405949.59246                  23074316.1384
        14.5004         14.2504
  20718447.6064    1968697.95547   1542750.24047                  20718453.6184
        27.5004         26.0004
  23709359.8804    8314809.19146   6479068.33046                  23709367.0674
        13.7504         14.0004
  21710869.2164   -2451324.09447  -1851244.47246                  21710875.5564
        21.5004         22.2504
  21307466.2394    -986213.19947   -714878.49846                  21307472.3564
        22.0004         25.2504
  22619569.3564   -5353332.68547  -3996778.44046                  22619575.1464
        20.2504         19.0004
  23427752.2164   -1730157.51346  -1273433.58946                  23427758.2984
        14.7504         14.7504
  21274655.0134    2519539.33348   1973247.46847                  21274661.0484
        28.0004         27.2504
  23631309.8494       3860.42345
        11.0004
 02  7  9 15 36 45.0010000  0  9G26G 6G10G15G17G18G29G23G22
  23072971.4354   -3318131.61746  -2411432.42746                  23072978.4704
        14.5004         14.7504
  20724415.2474    2000056.55247   1567185.49447                  20724421.3534
        27.0004         26.2504
  23723169.9584    8387379.08046   6535616.26246                  23723176.8644
        14.2504         14.2504
  21710313.7714   -2454243.18547  -1853519.07546                  21710320.0284
        21.7504         22.7504
  21308817.7944    -979110.85847   -709344.20946                  21308823.9464
        22.2504         25.0004
  22615240.5054   -5376082.06947  -4014505.21446                  22615246.3884
        20.7504         19.0004
  23428601.4894   -1725691.38046  -1269953.47046                  23428607.8414
        14.7504         15.0004
  21281605.9114    2556066.95047   2001710.54047                  21281611.9934
        27.5004         27.2504
  23632002.8414       7501.51645
        10.7504
 02  7  9 15 37  0.0010000  0  9G26G 6G10G15G17G18G29G23G22
  23071670.4034   -3324966.91646  -2416758.62046                  23071677.9894
        14.2504         15.2504
  20730420.3174    2031614.36947   1591775.99847                  20730426.3064
        27.0004         26.2504
  23737005.2164    8460086.80146   6592271.59446                  23737012.0604
        14.2504         14.2504
  21709786.0994   -2457016.09747  -1855679.78946                  21709792.3804
        21.7504         22.5004
  21310196.5754    -971866.21747   -703699.03746                  21310202.5174
        22.7504         25.2504
  22610942.6694   -5398666.94647  -4032103.78946                  22610948.5754
        20.7504         19.2504
  23429490.1694   -1721023.98846  -1266316.52646                  23429496.6494
        14.5004         15.0004
  21288596.0754    2592800.03247   2030333.71747                  21288602.0054
        27.2504         27.2504
  23632737.3174      11364.43645
        10.0004
 02  7  9 15 37 15.0010000  0  9G26G 6G10G15G17G18G29G23G22
  23070408.1144   -3331600.68046  -2421927.76746                  23070415.2434
        14.2504         14.7504
  20736463.6694    2063371.72547   1616521.97247                  20736469.7044
        27.0004         26.2504
  23750867.0604    8532932.33946   6649034.30046                  23750874.1774
        14.0004         14.2504
  21709286.3494   -2459642.68047  -1857726.46546                  21709293.0404
        21.7504         23.0004
  21311602.3964    -964478.93947   -697942.72246                  21311608.4894
        22.7504         25.5004
  22606676.0914   -5421086.74547  -4049573.75246                  22606681.9034
        20.5004         19.5004
  23430416.7164   -1716154.81246  -1262522.36846                  23430423.3134
        14.5004         14.7504
  21295625.0754    2629738.61947   2059117.02547                  21295631.0874
        26.7504         27.0004
  23633515.2784      15449.49945       865.52355                  23633522.5954
        10.5004         11.2504
 02  7  9 15 37 30.0010000  0  9G26G 6G10G15G17G18G29G23G22
  23069183.8414   -3338034.40646  -2426941.03046                  23069190.2044
        14.2504         14.7504
  20742544.5054    2095326.74647   1641421.98547                  20742550.5524
        27.0004         26.0004
  23764755.2864    8605913.34546   6705902.58246                  23764762.1184
        14.0004         13.7504
  21708814.1144   -2462124.75847  -1859660.54646                  21708820.8764
        21.5004         23.0004
  21313035.0444    -956950.98347   -692076.78346                  21313040.9384
        23.0004         25.5004
  22602440.9744   -5443343.21647  -4066916.43546                  22602446.8454
        20.7504         19.5004
  23431381.4424   -1711085.52846  -1258572.25946                  23431388.0634
        15.2504         15.2504
  21302692.8724    2666880.63647   2088058.84847                  21302698.9894
        27.0004         27.0004
  23634334.6694      19754.96545      4220.41245                  23634341.4314
        11.0004         11.0004
 02  7  9 15 37 45.0010000  0  9G26G 6G10G15G17G18G29G23G22
  23067996.3804   -3344272.26846  -2431801.67746                  23068003.3804
        14.0004         14.7504
  20748662.2244    2127475.03347   1666472.58547                  20748668.1654
        27.0004         26.0004
  23778667.8564    8679024.97546   6762872.63646                  23778674.5714
        13.5004         13.7504
  21708368.4664   -2464466.83347  -1861485.54446                  21708374.9934
        21.5004         22.5004
  21314493.4354    -949286.90747   -686104.78146                  21314499.4464
        23.5004         25.5004
  22598236.0444   -5465440.62047  -4084135.17646                  22598241.8924
        21.2504         20.2504
  23432383.2244   -1705820.50046  -1254469.64446                  23432389.9504
        15.2504         15.2504
  21309798.7554    2704221.41547   2117155.54947                  21309805.0134
        27.7504         27.5004
  23635195.1064      24276.40245      7743.61445                  23635202.1884
        11.0004         10.5004
 02  7  9 15 38  0.0010000  0  9G26G 6G10G15G17G18G29G23G22
  23066846.9034   -3350314.73846  -2436510.08346                  23066853.4784
        13.2504         14.2504
  20754816.5604    2159815.75047   1691673.13947                  20754822.6064
        27.5004         26.2504
  23792604.8884    8752265.99646   6819943.52346                  23792611.2514
        14.0004         13.0004
  21707949.1064   -2466669.70447  -1863202.05846                  21707955.5994
        21.7504         22.7504
  21315977.4034    -941487.56647   -680027.37047                  21315983.6264
        23.2504         25.7504
  22594061.1224   -5487379.57147  -4101230.44846                  22594067.0634
        21.2504         20.2504
  23433422.1304   -1700360.16146  -1250214.82546                  23433428.3644
        15.5004         15.0004
  21316942.0604    2741759.89547   2146406.31047                  21316948.2004
        27.7504         27.7504
  23636096.5134      29013.13945     11434.56445                  23636103.5834
        11.0004         11.0004
 02  7  9 15 38 15.0010000  0  9G26G 6G10G15G17G18G29G23G22
  23065734.5674   -3356159.81646  -2441064.65446                  23065741.3174
        13.2504         14.5004
  20761007.3884    2192350.55147   1717024.92247                  20761013.2824
        27.5004         26.5004
  23806567.0994    8825637.75246   6877116.28246                  23806573.6734
        13.5004         12.7504
  21707556.7084   -2468731.73647  -1864808.83146                  21707563.0954
        21.7504         22.7504
  21317487.6534    -933551.33847   -673843.29646                  21317493.8764
        23.0004         25.5004
  22589916.4424   -5509158.31247  -4118200.86546                  22589922.8294
        20.2504         20.2504
  23434499.0214   -1694702.75646  -1245806.46746                  23434505.1384
        15.2504         15.2504
  21324123.3884    2779497.46647   2175812.20547                  21324129.5754
        27.7504         27.5004
  23637038.7634      33966.90645     15294.64345                  23637045.1144
        11.0004         11.2504
 02  7  9 15 38 30.0010000  0  9G26G 6G10G15G17G18G29G23G22
  23064660.2314   -3361806.68446  -2445464.80846                  23064667.4664
        13.2504         14.0004
  20767235.7084    2225080.02847   1742528.40447                  20767241.7434
        27.2504         26.5004
  23820554.4584    8899140.36646   6934391.03746                  23820560.7984
        13.5004         12.5004
  21707191.3804   -2470652.48247  -1866305.51946                  21707197.6854
        22.2504         22.5004
  21319023.7784    -925477.84147   -667552.25646                  21319029.9544
        22.7504         25.5004
  22585802.8024   -5530775.96347  -4135045.76946                  22585809.1184
        20.0004         19.7504
  23435612.6224   -1688847.63546  -1241244.01046                  23435620.1034
        15.2504         15.5004
  21331342.4814    2817434.42847   2205373.46847                  21331348.5054
        27.7504         27.2504
  23638022.4814      39138.24645     19324.27445                  23638030.4074
        10.2504         11.5004
 02  7  9 15 38 45.0010000  0  9G26G 6G10G15G17G18G29G23G22
  23063623.2244   -3367253.29046  -2449708.87746                  23063629.8104
        14.0004         14.0004
  20773501.2864    2258005.92448   1768184.92947                  20773507.1924
        28.0004         26.5004
  23834567.0284    8972775.11846   6991768.71446                  23834573.1924
        13.2504         12.0004
  21706852.7714   -2472430.26247  -1867690.79646                  21706859.4154
        21.7504         22.7504
  21320586.7864    -917265.30847   -661152.88546                  21320592.9034
        22.2504         25.2504
  22581720.2314   -5552230.77047  -4151763.78146                  22581726.4314
        20.5004         20.0004
  23436765.3964   -1682792.76246  -1236525.92546                  23436772.6534
        15.7504         15.0004
  21338599.8884    2855572.23747   2235091.23147                  21338605.8644
        26.7504         27.0004
  23639048.8254      44529.03645     23524.86346                  23639056.4584
        10.2504         12.0004
 02  7  9 15 39  0.0010000  0  9G26G 6G10G15G17G18G29G23G22
  23062624.5674   -3372502.76546  -2453799.35846                  23062631.5564
        13.7504         14.0004
  20779803.6694    2291124.83948   1793991.86647                  20779809.6574
        28.0004         26.5004
  23848603.4034    9046538.22446   7049246.41846                  23848610.1184
        14.2504         12.7504
  21706540.9894   -2474068.48447  -1868967.33046                  21706547.8214
        22.0004         22.7504
  21322175.2084    -908917.22747   -654647.88746                  21322181.3844
        22.2504         25.0004
  22577668.0674   -5573525.93047  -4168357.38946                  22577674.2314
        20.5004         20.0004
  23437954.8724   -1676541.55446  -1231654.84946                  23437961.1304
        15.2504         15.0004
  21345894.6774    2893907.19047   2264962.61647                  21345900.7354
        26.7504         27.0004
  23640115.3104      50135.78645     27893.75746                  23640122.9074
        10.2504         12.2504
 02  7  9 15 39 15.0010000  0  9G26G 6G10G15G17G18G29G23G22
  23061663.5604   -3377550.46846  -2457732.61146                  23061671.0284
        14.0004         14.5004
  20786143.5914    2324441.02847   1819952.52747                  20786149.4854
        27.5004         26.5004
  23862665.1854    9120433.56646   7106827.18646                  23862671.2784
        13.5004         12.7504
  21706256.8494   -2475562.98647  -1870131.87246                  21706263.7434
        22.0004         23.2504
  21323790.3174    -900429.54647   -648034.11346                  21323796.2474
        22.0004         24.7504
  22573646.8414   -5594656.97847  -4184823.12746                  22573652.8064
        20.2504         19.7504
  23439182.7004   -1670089.42246  -1226627.20246                  23439189.6884
        15.0004         15.0004
  21353228.0284    2932443.33847   2294990.77747                  21353234.0284
        27.2504         27.0004
  23641224.9194      55963.01245     32434.46946                  23641232.7864
        10.5004         12.7504
 02  7  9 15 39 30.0010000  0  9G26G 6G10G15G17G18G29G23G22
  23060739.6144   -3382408.73246  -2461518.25646                  23060746.7554
        14.5004         14.2504
  20792518.6614    2357941.93647   1846057.12047                  20792524.6964
        27.7504         26.5004
  23876749.5524    9194448.21646   7164500.90146                  23876756.5284
        13.5004         12.5004
  21705997.2474   -2476926.38947  -1871194.25746                  21706004.2824
        21.7504         23.2504
  21325429.9744    -891814.75547   -641321.29446                  21325436.0564
        22.7504         25.0004
  22569654.3884   -5615636.20647  -4201170.57246                  22569660.0604
        20.0004         19.2504
  23440446.3964   -1663448.69446  -1221452.60146                  23440452.4664
        15.5004         15.0004
  21360596.8884    2971167.87247   2325165.73547                  21360603.1574
        27.0004         27.2504
  23642372.9274      61998.05345     37137.10046                  23642381.2044
        11.5004         12.5004
 02  7  9 15 39 45.0010000  0  9G26G 6G10G15G17G18G29G23G22
  23059852.2474   -3387070.58246  -2465150.85246                  23059858.8684
        14.5004         14.5004
  20798930.0134    2391634.26847   1872310.87547                  20798936.0014
        27.2504         26.7504
  23890858.3724    9268588.52646   7222272.51646                  23890864.8534
        13.0004         12.7504
  21705764.1534   -2478152.01247  -1872149.28746                  21705770.9274
        22.2504         23.0004
  21327094.5914    -883066.38147   -634504.38546                  21327100.7554
        22.7504         25.0004
  22565691.8804   -5636456.81746  -4217394.39546                  22565697.9154
        19.0004         19.2504
  23441746.9744   -1656612.65646  -1216125.81546                  23441753.3604
        15.7504         14.7504
  21368003.1384    3010087.22047   2355492.49347                  21368009.3374
        27.2504         27.0004
  23643562.5524      68247.77845     42007.02645                  23643569.8804
        11.2504         11.5004
 02  7  9 15 40  0.0010000  0  9G26G 6G10G15G17G18G29G23G22
  23059003.1854   -3391533.47046  -2468628.38546                  23059009.7714
        14.5004         14.7504
  20805378.0914    2425520.14547   1898715.45147                  20805384.0674
        27.0004         26.5004
  23904990.8564    9342856.27146   7280143.44846                  23904997.0794
        13.0004         13.0004
  21705557.4664   -2479237.74747  -1872995.30946                  21705563.8414
        22.7504         23.0004
  21328785.3334    -874182.16247   -627581.61546                  21328791.3804
        22.7504         25.5004
  22561760.7864   -5657116.47146  -4233492.80646                  22561766.8104
        19.0004         19.0004
  23443085.3494   -1649578.84246  -1210644.91746                  23443092.0634
        15.2504         15.2504
  21375446.7554    3049203.28447   2385972.53547                  21375452.9544
        26.7504         27.2504
  23644792.9584      74714.34345     47045.89946                  23644799.6264
        11.0004         12.0004
 02  7  9 15 40 15.0010000  0  9G26G 6G10G15G17G18G29G23G22
  23058192.3334   -3395793.50346  -2471947.88546                  23058198.5214
        14.2504         14.7504
  20811864.1694    2459603.18047   1925273.65547                  20811870.1104
        27.7504         27.0004
  23919148.2634    9417254.62346   7338116.17446                  23919155.1814
        12.7504         12.5004
  21705378.1774   -2480179.95347  -1873729.49446                  21705384.4464
        22.5004         23.0004
  21330502.4114    -865158.69747   -620550.34846                  21330508.6224
        22.7504         25.5004
  22557861.1064   -5677611.53446  -4249462.96346                  22557867.1064
        19.7504         19.0004
  23444462.6614   -1642343.62946  -1205007.07546                  23444469.3064
        15.0004         15.2504
  21382928.3174    3088519.33047   2416608.40747                  21382934.2944
        27.0004         27.2504
  23646065.4744      81401.36145     52256.54146                  23646071.5214
        11.0004         12.0004
 02  7  9 15 40 30.0010000  0  9G26G 6G10G15G17G18G29G23G22
  23057419.5754   -3399852.73146  -2475110.90146                  23057426.1384
        14.2504         14.2504
  20818386.9034    2493881.09048   1951983.70047                  20818392.8104
        28.0004         26.7504
  23933330.2714    9491780.88346   7396188.53346                  23933337.6224
        12.7504         12.5004
  21705225.9584   -2480981.05247  -1874353.72646                  21705232.2284
        21.7504         22.7504
  21332245.5674    -855998.34647   -613412.40946                  21332251.7084
        22.5004         25.2504
  22553991.7474   -5697944.02947  -4265306.44446                  22553997.8174
        20.7504         19.2504
  23445877.1224   -1634909.06546  -1199213.91946                  23445883.6854
        14.7504         14.7504
  21390447.6694    3128032.83847   2447398.14547                  21390453.6224
        27.0004         27.0004
  23647379.0834      88306.69345     57637.32446                  23647386.0364
        11.0004         12.2504
 02  7  9 15 40 45.0010000  0  9G26G 6G10G15G17G18G29G23G22
  23056684.8494   -3403714.29146  -2478119.88646                  23056691.3764
        14.7504         14.2504
  20824946.5444    2528350.49148   1978842.96147                  20824952.5094
        28.0004         27.0004
  23947535.7784    9566431.28346   7454357.62446                  23947542.2004
        12.7504         12.5004
  21705099.3964   -2481644.48247  -1874870.67646                  21705105.7004
        21.7504         22.7504
  21334013.9504    -846704.56047   -606170.50146                  21334020.2904
        22.2504         25.2504
  22550152.8964   -5718117.12147  -4281025.72446                  22550158.8844
        21.0004         19.5004
  23447329.0754   -1627278.36646  -1193267.92846                  23447335.5444
        14.7504         15.0004
  21398003.4974    3167740.20947   2478338.95447                  21398009.4624
        26.7504         27.0004
  23648734.4584      95426.93545     63185.57046                  23648742.7354
        11.2504         12.7504
 02  7  9 15 41  0.0010000  0  9G26G 6G10G15G17G18G29G23G22
  23055987.4354   -3407378.80746  -2480975.31646                  23055994.2784
        14.2504         14.5004
  20831541.9814    2563010.27447   2005850.57647                  20831547.9234
        27.7504         26.7504
  23961764.9504    9641204.39246   7512622.33846                  23961771.6774
        13.5004         13.0004
  21704999.3104   -2482171.36047  -1875281.22046                  21705005.7784
        21.7504         22.7504
  21335807.6144    -837278.39747   -598825.44446                  21335813.8964
        22.2504         25.2504
  22546344.1694   -5738131.75647  -4296621.52446                  22546349.8884
        21.5004         19.7504
  23448818.3024   -1619452.44646  -1187169.78746                  23448824.8644
        15.2504         15.0004
  21405596.2714    3207640.13047   2509429.79547                  21405602.3174
        27.0004         26.7504
  23650130.1774     102761.12645     68900.52846                  23650138.1854
        11.7504         12.7504
 02  7  9 15 41 15.0010000  0  9G26G 6G10G15G17G18G29G23G22
  23055328.7084   -3410843.45446  -2483675.02646                  23055335.7314
        14.7504         14.7504
  20838174.1304    2597863.12048   2033008.63147                  20838179.9784
        28.0004         27.0004
  23976017.7314    9716102.41546   7570984.40246                  23976024.0244
        14.0004         12.5004
  21704925.2944   -2482559.09147  -1875583.34646                  21704931.6924
        22.0004         22.7504
  21337627.2864    -827717.26347   -591375.20646                  21337633.6494
        22.0004         25.2504
  22542566.4114   -5757985.16247  -4312091.69046                  22542572.4704
        21.2504         19.7504
  23450345.3724   -1611428.45546  -1180917.32146                  23450351.7004
        14.5004         15.0004
  21413225.9974    3247734.93347   2540672.49747                  21413231.9504
        26.7504         26.7504
  23651567.1534     110311.90245     74784.24946                  23651574.4234
        11.5004         13.2504
 02  7  9 15 41 30.0010000  0  9G26G 6G10G15G17G18G29G23G22
  23054708.5364   -3414102.48546  -2486214.53646                  23054714.9464
        15.2504         14.5004
  20844844.2554    2632914.38948   2060321.29847                  20844850.3494
        28.0004         27.0004
  23990295.0524    9791130.41846   7629447.75746                  23990301.4854
        14.0004         12.5004
  21704879.2634   -2482802.24247  -1875772.81246                  21704885.7554
        22.7504         23.0004
  21339473.2784    -818015.95947   -583815.75546                  21339479.5364
        22.2504         25.0004
  22538820.2864   -5777671.65447  -4327431.78746                  22538826.2984
        21.0004         19.7504
  23451910.8804   -1603200.82546  -1174506.18446                  23451917.5714
        14.2504         15.0004
  21420893.7944    3288029.76847   2572071.06447                  21420899.7244
        27.0004         26.7504
  23653046.0834     118084.71445     80840.96346                  23653054.2674
        11.7504         12.7504
 02  7  9 15 41 45.0010000  0  9G26G 6G10G15G17G18G29G23G22
  23054127.1064   -3417157.62946  -2488595.14146                  23054133.6694
        15.7504         14.5004
  20851551.5914    2668162.09448   2087787.04347                  20851557.5094
        28.0004         27.0004
  24004596.5754    9866285.95346   7688010.47946                  24004603.3134
        13.5004         12.5004
  21704860.1384   -2482902.96447  -1875851.29046                  21704866.7124
        22.5004         23.2504
  21341345.5604    -808176.57347   -576148.70546                  21341351.5834
        22.2504         25.2504
  22535105.0674   -5797193.07547  -4342643.25046                  22535111.1854
        21.0004         20.2504
  23453515.3884   -1594771.44346  -1167937.83346                  23453522.1034
        14.5004         15.0004
  21428599.2244    3328522.38047   2603623.73947                  21428605.3764
        26.7504         27.0004
  23654566.7864     126077.66145     87069.23546                  23654575.2744
        11.2504         12.7504
 02  7  9 15 42  0.0010000  0  9G26G 6G10G15G17G18G29G23G22
  23053585.4354   -3420004.03046  -2490813.09746                  23053591.6814
        16.0004         14.7504
  20858297.1854    2703610.78548   2115409.38347                  20858303.2204
        28.0004         27.0004
  24018923.2474    9941573.21046   7746675.86146                  24018930.1534
        13.5004         12.0004
  21704868.8414   -2482856.68547  -1875815.22946                  21704875.5324
        22.0004         23.2504
  21343245.1224    -798194.47647   -568370.44846                  21343251.2284
        22.7504         25.0004
  22531423.1144   -5816544.60847  -4357722.33446                  22531429.2904
        21.0004         20.5004
  23455158.3804   -1586135.62246  -1161208.62546                  23455164.4744
        14.7504         14.2504
  21436343.3414    3369217.06547   2635333.88047                  21436349.4114
        26.5004         26.7504
  23656130.8414     134295.35245     93472.63546                  23656138.6494
        11.0004         12.7504
 02  7  9 15 42 15.0010000  0  9G26G 6G10G15G17G18G29G23G22
  23053083.4744   -3422641.86246  -2492868.54946                  23053089.9544
        15.7504         15.0004
  20865081.1064    2739260.00648   2143187.98147                  20865087.0604
        28.0004         27.2504
  24033274.7474   10016991.42546   7805443.25545                  24033282.3104
        13.5004         11.5004
  21704905.5214   -2482663.87747  -1875664.98846                  21704912.0244
        22.2504         23.2504
  21345171.6924    -788070.27547   -560481.46046                  21345177.7984
        22.2504         24.7504
  22527772.6464   -5835726.60047  -4372669.31946                  22527778.4814
        21.7504         20.5004
  23456841.0674   -1577293.55446  -1154318.67746                  23456847.1614
        14.5004         15.0004
  21444125.5674    3410113.07447   2667200.89747                  21444131.5914
        26.5004         27.0004
  23657736.8644     142737.30745    100050.78346                  23657744.6034
        11.0004         12.2504
 02  7  9 15 42 30.0010000  0  9G26G 6G10G15G17G18G29G23G22
  23052622.5524   -3425063.86646  -2494755.79946                  23052629.1384
        15.5004         15.0004
  20871904.4274    2775116.64247   2171128.21747                  20871910.5094
        27.7504         27.2504
  24047653.0054   10092547.17046   7864317.82645                  24047659.9934
        13.0004         11.7504
  21704971.4034   -2482317.67347  -1875395.21446                  21704978.0954
        22.0004         23.5004
  21347126.4584    -777797.23447   -552476.49946                  21347132.4704
        22.2504         25.0004
  22524155.8494   -5854732.10447  -4387478.78546                  22524161.7784
        21.5004         20.7504
  23458563.8254   -1568238.14746  -1147262.51546                  23458569.9314
        14.7504         15.0004
  21451947.3564    3451217.05447   2699229.96347                  21451953.4384
        26.7504         27.0004
  23659387.8104     151410.50545    106809.11046                  23659395.5714
        11.7504         12.7504
 02  7  9 15 42 45.0010000  0  9G26G 6G10G15G17G18G29G23G22
  23052202.3724   -3427271.03646  -2496475.65946                  23052208.9814
        15.7504         15.0004
  20878766.9424    2811179.45747   2199229.10647                  20878772.9544
        27.2504         27.2504
  24062056.4894   10168238.75846   7923298.25845                  24062063.1694
        13.0004         11.5004
  21705066.3174   -2481819.40047  -1875006.94646                  21705073.0324
        22.0004         23.2504
  21349109.5834    -767376.53047   -544356.47246                  21349115.7354
        22.0004         25.0004
  22520572.6304   -5873562.22047  -4402151.58246                  22520578.7354
        21.5004         20.7504
  23460327.7784   -1558970.58446  -1140041.03646                  23460334.6224
        14.5004         15.2504
  21459808.5524    3492527.49347   2731419.91347                  21459814.5284
        27.0004         27.0004
  23661082.2164     160313.80546    113746.74446                  23661088.7434
        12.2504         13.0004
 02  7  9 15 43  0.0010000  0  9G26G 6G10G15G17G18G29G23G22
  23051823.9034   -3429258.33846  -2498024.20046                  23051831.1144
        15.5004         15.0004
  20885669.6224    2847453.08747   2227494.26347                  20885675.6814
        27.0004         27.0004
  24076486.9894   10244070.49646   7982387.90445                  24076492.9424
        13.0004         11.2504
  21705190.7714   -2481164.42047  -1874496.56646                  21705197.7124
        21.7504         23.5004
  21351121.7944    -756803.59147   -536117.81946                  21351127.9234
        21.7504         25.0004
  22517023.6384   -5892211.93347  -4416683.78446                  22517029.5324
        21.5004         20.7504
  23462132.5754   -1549486.00346  -1132650.44746                  23462139.5754
        14.2504         14.5004
  21467709.8804    3534048.78847   2763774.17347                  21467715.9744
        27.0004         27.0004
  23662821.0914     169451.88846    120867.32746                  23662827.4664
        12.0004         12.2504
 02  7  9 15 43 15.0010000  0  9G26G 6G10G15G17G18G29G23G22
  23051489.5834   -3431015.14646  -2499393.12946                  23051496.4154
        15.0004         14.7504
  20892614.4194    2883948.01447   2255931.85747                  20892620.4194
        27.2504         27.2504
  24090945.5054   10320052.39046   8041594.54445                  24090951.8804
        12.7504         11.2504
  21705347.3414   -2480342.34647  -1873855.98746                  21705353.9504
        22.0004         23.2504
  21353164.6064    -746067.97647   -527752.39846                  21353170.7474
        22.0004         25.0004
  22513511.1534   -5910670.74547  -4431067.25946                  22513516.9424
        21.0004         20.7504
  23463980.5994   -1539773.82946  -1125082.51846                  23463986.9854
        14.2504         15.0004
  21475652.9744    3575791.11247   2796300.65747                  21475659.2904
        26.7504         27.0004
  23664606.7164     178835.31345    128179.07946                  23664614.3254
        11.5004         12.7504
 02  7  9 15 43 30.0010000  0  9G26G 6G10G15G17G18G29G23G22
  23051200.0134   -3432538.71746  -2500580.32246                  23051207.0484
        15.0004         15.0004
  20899601.7554    2920666.61247   2284543.73547                  20899607.6854
        27.7504         27.2504
  24105433.1144   10396186.43546   8100919.75245                  24105440.1494
        12.0004         11.2504
  21705535.9114   -2479350.80547  -1873083.35246                  21705542.3104
        22.0004         23.2504
  21355238.6694    -735167.53847   -519258.56046                  21355244.9624
        22.0004         25.0004
  22510035.1854   -5928936.09647  -4445299.97946                  22510041.2784
        20.0004         20.2504
  23465872.6694   -1529831.44146  -1117335.21546                  23465878.9624
        14.2504         14.5004
  21483638.6534    3617756.54347   2829000.98347                  21483644.7004
        26.7504         26.7504
  23666439.1384     188466.29345    135683.73146                  23666447.2164
        11.2504         12.7504
 02  7  9 15 43 45.0010000  0  9G26G 6G10G15G17G18G29G23G22
  23050955.3254   -3433824.87546  -2501582.52146                  23050961.8294
        16.0004         14.5004
  20906632.4744    2957612.77947   2313332.95647                  20906638.5674
        27.7504         27.2504
  24119950.7714   10472476.24046   8160366.31245                  24119957.7004
        12.5004         11.7504
  21705757.6384   -2478185.95147  -1872175.67346                  21705763.9314
        22.7504         23.2504
  21357345.1224    -724098.23247   -510633.13246                  21357351.2514
        22.7504         25.2504
  22506597.2864   -5947003.84747  -4459378.71646                  22506603.3454
        20.0004         20.0004
  23467809.1854   -1519654.84246  -1109405.37546                  23467816.1034
        14.2504         14.7504
  21491667.7314    3659948.80847   2861878.06847                  21491673.7084
        26.5004         27.0004
  23668319.8334     198349.01545    143384.55746                  23668327.2554
        11.0004         12.5004
 02  7  9 15 44  0.0010000  0  9G26G 6G10G15G17G18G29G23G22
  23050757.6224   -3434863.53546  -2502391.85046                  23050763.7984
        16.5004         15.2504
  20913707.9894    2994796.27847   2342307.10047                  20913713.9894
        26.7504         27.0004
  24134499.6774   10548931.13446   8219941.52945                  24134506.9704
        12.0004         11.5004
  21706014.0604   -2476838.00847  -1871125.32046                  21706020.4934
        23.0004         23.2504
  21359485.6224    -712850.49947   -501868.66946                  21359491.7744
        22.7504         25.2504
  22503198.3254   -5964863.99446  -4473295.69146                  22503204.2674
        19.5004         20.0004
  23469792.1854   -1509234.13946  -1101285.34946                  23469798.5714
        14.5004         14.5004
  21499741.6304    3702377.40047   2894939.29947                  21499747.5484
        27.0004         27.0004
  23670250.1224     208493.15645    151289.06946                  23670257.4854
        10.5004         12.2504
 02  7  9 15 44 15.0010000  0  9G26G 6G10G15G17G18G29G23G22
  23050612.8414   -3435624.58246  -2502984.86846                  23050619.2984
        16.0004         14.7504
  20920834.6064    3032246.83147   2371489.33947                  20920840.7714
        26.7504         27.0004
  24149085.2944   10625580.44246   8279668.22246                  24149092.4464
        12.0004         12.0004
  21706311.1144   -2475277.32047  -1869909.18946                  21706317.5834
        23.0004         23.7504
  21361665.6384    -701394.57747   -492941.97946                  21361671.8494
        22.5004         25.2504
  22499844.3964   -5982486.69146  -4487027.64146                  22499850.6774
        19.7504         20.2504
  23471827.5674   -1498539.21946  -1092951.63046                  23471834.2354
        14.5004         14.5004
  21507866.1384    3745071.81947   2928207.68447                  21507872.1734
        27.2504         27.0004
  23672235.8804     218928.59845    159420.56746                  23672244.2634
        10.0004         12.2504
 02  7  9 15 44 30.0010000  0  9G26G 6G10G15G17G18G29G23G22
  23050516.8644   -3436127.92346  -2503377.08746                  23050522.9354
        15.5004         15.2504
  20928008.2004    3069944.30747   2400863.98747                  20928014.2714
        26.7504         27.0004
  24163704.7944   10702403.64746   8339530.43046                  24163712.0874
        13.0004         13.0004
  21706644.6384   -2473524.09747  -1868543.03946                  21706651.1304
        23.0004         23.5004
  21363881.1924    -689750.64747   -483868.79046                  21363887.6034
        22.7504         25.2504
  22496532.6534   -5999891.91146  -4500590.12346                  22496538.8174
        19.5004         20.0004
  23473911.0214   -1487590.23246  -1084419.94846                  23473917.1614
        15.2504         15.0004
  21516037.4194    3788011.64347   2961667.28447                  21516043.5484
        27.0004         26.7504
  23674273.3724     229635.28245    167763.45046                  23674281.3454
        11.0004         12.2504
 02  7  9 15 44 45.0010000  0  9G26G 6G10G15G17G18G29G23G22
  23050466.3884   -3436394.08246  -2503584.47146                  23050473.0324
        15.0004         15.0004
  20935224.7864    3107867.94047   2430414.86047                  20935230.8334
        26.7504         27.0004
  24178352.9504   10779379.71346   8399511.73146                  24178359.7594
        13.0004         12.7504
  21707010.8644   -2471599.15447  -1867043.07346                  21707017.0874
        22.7504         23.5004
  21366128.8884    -677939.60647   -474665.37946                  21366135.1924
        22.7504         25.2504
  22493257.9894   -6017100.35947  -4513999.27946                  22493264.1654
        20.0004         20.5004
  23476038.8644   -1476407.74946  -1075706.33246                  23476045.0634
        15.2504         15.0004
  21524251.0134    3831175.78647   2995301.66847                  21524257.0604
        27.0004         26.7504
  23676358.1304     240592.33545    176301.41146                  23676365.8214
        10.7504         12.2504
 02  7  9 15 45  0.0010000  0  9G26G 6G10G15G17G18G29G23G22
  23050470.4194   -3436374.30246  -2503569.07046                  23050476.8764
        15.5004         14.7504
  20942493.8414    3146066.15247   2460179.68447                  20942499.9114
        26.5004         26.7504
  24193039.1064   10856556.66446   8459649.56646                  24193046.9504
        12.5004         12.5004
  21707418.9974   -2469454.02147  -1865371.54246                  21707425.6884
        22.2504         23.5004
  21368417.5604    -665913.06747   -465294.05946                  21368423.6774
        22.5004         25.0004
  22490030.0834   -6034063.27947  -4527217.11846                  22490036.3414
        20.2504         20.7504
  23478220.3494   -1464943.11446  -1066772.84546                  23478226.4894
        14.5004         15.0004
  21532516.7864    3874612.40947   3029148.39247                  21532523.0324
        26.7504         27.0004
  23678500.6534     251848.24545    185072.23246                  23678507.8174
        10.7504         12.2504
 02  7  9 15 45 15.0010000  0  9G26G 6G10G15G17G18G29G23G22
  23050531.6534   -3436050.96846  -2503317.11746                  23050538.1464
        15.7504         15.5004
  20949818.1384    3184556.31447   2490172.01247                  20949824.1144
        26.7504         26.7504
  24207766.3254   10933951.52046   8519957.18746                  24207774.0284
        12.2504         12.2504
  21707872.4664   -2467071.37047  -1863514.93046                  21707879.3104
        22.5004         23.5004
  21370750.3964    -653653.85047   -455741.42846                  21370756.7714
        22.2504         25.2504
  22486852.0054   -6050763.18447  -4540230.01146                  22486858.1104
        20.2504         20.7504
  23480459.4584   -1453178.84546  -1057605.88046                  23480466.1034
        14.7504         14.5004
  21540837.6144    3918338.66147   3063220.79347                  21540843.6614
        26.2504         26.5004
  23680702.4814     263420.48245    194089.56946                  23680710.5834
        11.0004         12.5004
 02  7  9 15 45 30.0010000  0  9G26G 6G10G15G17G18G29G23G22
  23050647.8724   -3435439.29946  -2502840.47846                  23050654.7904
        15.2504         15.2504
  20957195.1064    3223322.86947   2520379.70847                  20957201.1654
        26.2504         26.5004
  24222532.9894   11011548.36345   8580422.23845                  24222541.5834
        11.7504         11.7504
  21708368.1384   -2464466.82747  -1861485.41246                  21708375.0094
        22.7504         23.5004
  21373124.6144    -641177.32747   -446019.46046                  21373131.0134
        22.7504         25.2504
  22483721.4354   -6067215.42447  -4553049.90846                  22483727.5754
        21.0004         21.2504
  23482751.9424   -1441130.43946  -1048217.51146                  23482758.2944
        14.5004         14.7504
  21549210.7554    3962338.72147   3097506.55047                  21549216.6964
        26.2504         26.5004
  23682961.8564     275293.53945    203341.27646                  23682968.5244
        11.2504         12.7504
